ECMWFFLT1_925_spd_072.txt.gz
Wind_Speed
30 31 33 34 35 35 34 34 33 33 32 32 33 32 31 31 30 30 31 30 30 30 30 30 29 29 29 28 27 26 26 26 24 23 22 21 20 20 20 19 16 9 8 12 15 16 18 18 18 19 19 18 18 17 17 17 17 18 20 20 20 20 19
28 30 32 33 34 35 35 35 34 34 33 33 33 32 32 31 30 31 31 30 30 31 30 30 30 29 28 28 27 27 26 25 25 24 23 23 21 21 21 21 20 15 9 8 12 14 16 17 17 18 18 16 17 17 15 15 16 16 18 19 19 19 20
26 28 30 32 34 35 35 35 35 34 34 34 34 33 32 32 31 31 31 31 31 30 29 29 30 29 29 28 27 27 26 25 25 24 24 25 24 22 22 22 22 19 13 9 9 12 15 16 17 18 18 16 16 16 15 16 16 16 17 17 18 20 22
23 25 28 31 33 34 35 35 34 34 35 35 35 34 33 32 32 32 31 32 31 30 30 29 29 29 29 28 27 27 27 26 25 24 24 24 25 25 24 23 23 22 18 12 10 11 14 15 16 18 17 16 16 16 15 15 16 16 16 16 17 17 20
22 24 26 29 32 34 35 35 35 35 35 35 35 35 34 33 32 32 32 32 31 31 31 30 29 29 29 29 28 27 27 28 28 27 25 24 25 26 25 23 23 22 19 15 13 13 14 15 16 18 18 16 16 16 15 15 15 15 16 17 17 15 15
22 24 26 29 31 33 34 35 36 36 36 36 35 34 34 33 32 32 31 31 31 31 31 31 30 29 29 30 29 27 27 28 29 29 28 26 24 23 23 22 21 20 18 17 16 15 14 15 15 17 17 16 15 16 16 16 14 14 14 15 15 15 14
23 24 27 29 31 33 34 35 35 36 36 35 35 34 33 33 32 32 31 31 31 30 30 30 30 29 29 29 29 29 29 28 28 27 28 29 26 22 21 21 20 19 18 18 16 15 15 15 15 16 17 15 14 14 15 15 13 12 12 13 13 13 13
24 26 28 29 31 33 34 35 35 35 35 35 34 33 33 33 32 31 31 30 30 30 30 29 29 29 29 29 28 29 30 30 28 27 26 27 26 23 21 21 20 20 19 18 16 15 15 14 14 15 15 14 13 13 14 14 13 12 12 12 12 12 12
29 29 30 30 31 33 34 34 35 35 35 35 34 34 33 33 32 31 30 29 29 29 29 30 30 29 30 30 29 29 31 31 29 27 27 26 26 25 23 21 20 20 19 17 15 14 14 12 13 14 13 13 13 13 14 13 10 10 12 12 12 13 12
34 31 31 31 32 33 34 34 36 36 36 36 35 35 34 33 31 30 30 29 28 28 29 30 30 30 31 31 28 26 28 29 28 27 27 27 27 27 26 23 21 20 19 17 15 14 14 11 12 14 14 14 14 14 13 11 9 10 11 11 10 11 12
38 35 34 34 34 34 34 35 36 35 36 36 37 36 35 33 31 30 30 29 28 28 28 28 29 30 31 31 29 27 27 28 28 27 26 26 26 27 28 27 24 22 21 18 16 16 16 13 13 15 16 15 14 13 11 10 9 9 9 8 6 7 8
43 41 38 36 35 35 35 36 36 35 35 37 37 37 35 34 33 31 30 29 28 28 26 26 27 28 30 31 30 29 28 27 27 27 27 27 26 25 27 28 29 27 25 22 19 17 18 18 17 17 17 16 14 13 10 9 8 8 8 8 7 6 8
42 42 40 36 35 35 35 36 35 34 36 37 38 38 36 34 34 33 31 30 29 28 26 25 24 24 26 29 29 29 30 29 29 28 28 28 27 26 26 27 28 29 28 27 25 21 20 22 20 18 19 17 14 13 11 9 9 8 7 8 8 9 12
39 41 41 38 36 35 35 35 33 33 36 37 37 39 36 33 33 34 33 31 30 29 27 26 25 23 23 25 28 29 29 30 31 31 29 28 27 28 29 28 28 28 28 28 28 26 25 24 22 21 19 17 14 14 14 12 11 10 8 9 11 12 13
39 40 40 36 33 33 33 32 30 32 36 36 36 37 35 30 30 33 33 32 32 31 30 29 27 25 24 24 26 29 28 28 29 30 30 28 27 27 28 30 30 29 28 27 27 28 28 26 23 22 19 17 15 15 16 14 12 11 9 9 12 13 13
37 37 35 31 29 30 31 30 29 32 34 34 34 35 32 27 27 31 32 32 32 33 32 30 29 28 26 25 25 25 26 27 27 27 28 28 28 28 27 29 31 30 28 27 27 27 28 26 24 22 20 19 17 17 17 16 14 12 11 10 11 12 15
37 36 31 28 28 29 29 28 28 30 32 32 33 33 29 25 24 28 32 33 33 32 31 30 30 30 29 28 27 25 25 26 27 27 27 27 29 29 27 28 29 29 28 28 28 27 26 25 23 22 21 21 20 19 19 18 16 15 13 9 6 7 11
40 36 29 27 27 27 28 27 27 28 30 30 31 31 28 24 21 25 30 32 31 31 32 30 30 31 30 31 30 28 27 27 27 28 29 29 28 28 28 28 28 28 28 29 28 28 28 27 25 24 24 23 21 20 20 20 19 17 14 11 8 7 10
38 32 27 27 26 25 26 26 26 27 28 29 30 30 27 24 21 20 23 24 24 27 30 29 28 29 31 31 30 29 28 28 28 29 32 32 27 25 28 30 29 28 28 29 28 29 29 28 27 26 26 26 25 22 22 23 22 19 16 15 14 12 8
33 28 27 26 23 22 22 23 25 25 25 26 28 28 25 23 23 22 22 21 20 21 22 23 24 25 27 29 29 27 27 28 29 30 33 33 28 26 30 30 28 27 28 29 30 30 29 28 27 26 25 25 25 24 24 25 24 22 20 17 16 14 10
30 28 28 23 19 19 20 21 22 23 23 23 25 27 26 23 24 26 25 23 21 20 20 20 22 24 26 28 28 27 27 28 29 29 31 33 33 31 28 24 25 28 27 27 29 29 28 27 27 26 25 23 23 23 24 24 25 25 24 21 19 17 13
26 26 24 18 15 16 17 18 20 21 21 21 22 25 25 23 23 25 24 22 21 21 21 21 22 24 27 28 28 28 28 28 29 29 30 33 35 32 25 22 24 26 26 25 26 25 24 24 23 23 24 24 23 22 22 23 23 24 25 24 23 21 18
22 23 19 14 12 13 15 16 18 18 19 20 21 22 24 23 22 23 23 23 22 21 21 22 22 23 25 27 28 29 29 28 29 29 29 32 33 31 27 25 24 24 24 24 23 21 21 20 20 21 21 22 24 24 24 23 23 23 24 23 23 23 22
21 20 15 12 11 12 13 15 17 18 18 18 19 21 22 23 23 22 22 23 24 23 22 23 24 24 24 25 27 28 28 29 29 29 30 31 32 31 30 28 25 24 24 22 20 19 18 18 19 20 21 23 24 23 23 23 23 23 23 22 22 22 22
20 17 13 12 12 12 13 14 16 18 18 18 19 20 21 22 22 23 22 22 23 24 23 23 23 23 23 24 24 24 25 27 28 30 30 31 31 30 29 29 27 24 22 20 19 18 17 17 19 21 22 22 20 18 19 20 21 21 21 21 21 21 21
19 16 13 12 12 12 14 14 15 17 18 19 19 20 21 22 22 22 22 22 21 22 22 22 22 23 23 24 24 23 23 24 26 28 30 30 30 27 26 26 26 24 21 19 19 19 19 18 19 20 20 18 16 15 17 18 20 20 20 20 21 22 22
18 15 12 11 12 13 13 13 14 16 17 17 18 19 20 22 22 21 21 22 22 22 22 23 23 23 23 23 22 22 23 23 24 25 27 28 27 24 21 21 19 18 17 16 16 18 21 21 20 20 20 18 17 16 17 17 18 20 20 19 20 20 19
18 15 13 12 12 11 11 12 14 16 17 17 18 19 19 20 21 21 21 22 21 21 22 22 22 22 21 18 17 18 19 20 21 20 20 19 20 20 19 17 14 13 14 13 10 11 15 18 18 18 18 19 19 18 16 16 17 18 19 19 17 16 14
22 18 16 14 13 12 11 11 14 16 17 18 18 18 18 18 20 21 22 22 19 17 18 19 19 19 17 14 13 13 13 15 16 16 15 14 16 17 16 15 14 13 14 13 10 9 11 12 13 13 13 14 16 17 17 18 17 16 16 16 16 15 14
27 21 17 17 15 14 13 14 15 16 16 16 17 17 17 17 17 19 21 21 20 17 16 15 15 15 14 12 11 11 12 13 13 14 14 14 16 18 16 14 13 13 13 13 12 10 8 8 9 10 10 10 11 13 16 19 18 14 14 15 16 15 14
27 19 14 15 16 16 15 15 16 16 17 16 14 15 16 16 16 18 19 21 21 19 16 15 14 13 13 13 11 10 13 13 13 14 15 15 17 18 17 14 13 12 11 12 11 11 10 11 11 10 9 9 9 10 12 16 17 16 16 17 16 14 13
25 17 11 11 14 18 17 15 13 13 15 16 14 13 14 14 15 18 21 22 22 18 14 14 13 11 10 11 11 12 13 13 13 14 15 16 16 15 14 14 13 12 12 12 13 13 13 12 12 11 10 10 12 13 14 15 16 19 20 18 16 15 14
26 19 15 14 11 14 17 17 13 9 10 14 15 13 13 15 15 16 18 20 18 13 10 11 11 9 9 10 10 11 10 10 10 11 12 13 13 13 14 14 14 14 15 15 15 14 13 12 12 12 12 12 13 13 14 13 13 15 18 19 17 16 15
30 25 23 23 18 9 10 11 9 8 10 13 14 10 12 14 10 8 10 13 13 10 8 9 10 9 9 10 10 11 12 10 9 10 12 13 14 15 16 17 16 16 16 15 14 13 12 12 12 13 14 14 13 12 12 12 11 11 12 14 16 17 17
28 27 24 23 21 14 7 6 6 7 7 5 4 4 13 15 15 15 15 15 15 14 12 11 11 11 11 13 13 14 14 13 12 12 12 14 16 17 18 18 17 16 15 14 14 13 12 12 12 12 12 12 11 11 11 11 13 12 10 9 11 13 16
25 26 24 22 25 25 17 6 1 4 10 16 17 17 20 21 19 17 16 17 17 17 16 15 14 13 13 14 14 14 14 13 13 12 11 12 15 16 16 15 14 14 13 13 13 13 13 13 13 13 12 11 10 10 10 11 12 13 12 10 9 9 10

ECMWFFLT1_925_spd_078.txt.gz
Wind_Speed
40 41 40 40 39 38 38 37 37 36 36 35 35 35 36 36 35 34 34 35 36 36 35 35 35 36 36 34 33 33 32 32 32 31 31 30 29 29 29 28 22 14 12 15 20 21 19 19 19 19 21 21 21 22 21 20 20 19 19 19 20 21 22
43 43 41 40 39 38 37 37 36 36 37 38 39 37 36 35 34 33 34 34 35 36 35 34 35 36 36 34 33 34 33 32 32 31 30 30 29 28 29 28 26 20 13 13 19 22 21 21 21 22 23 23 22 21 19 19 19 19 18 19 20 21 22
43 42 41 40 40 39 37 37 36 36 37 39 40 40 38 36 35 34 34 35 35 36 35 33 34 36 36 33 33 34 34 33 33 31 31 31 30 29 29 29 28 25 17 12 16 21 22 21 22 23 24 23 21 20 19 19 18 18 18 18 19 19 20
42 41 41 40 40 39 38 37 38 38 39 38 39 40 41 40 39 37 36 36 36 36 35 34 34 36 35 33 33 34 33 33 33 32 31 30 30 29 29 29 29 28 24 17 15 20 22 20 21 22 22 21 20 19 19 18 18 17 18 18 17 18 19
41 40 39 39 39 39 39 41 42 41 40 39 38 39 41 42 41 40 38 38 38 37 36 35 35 36 35 33 33 34 33 33 32 32 31 30 30 29 29 28 29 29 27 23 18 19 21 19 19 19 19 19 19 18 18 18 18 17 17 17 17 17 18
41 40 39 40 41 42 43 42 41 39 38 39 39 39 41 43 43 42 41 39 39 39 38 37 37 37 36 35 35 35 34 33 32 32 31 31 30 29 28 27 28 27 26 25 23 21 20 18 18 18 18 19 19 18 18 18 17 17 16 16 17 17 16
43 42 42 42 42 42 40 37 36 35 36 37 39 40 41 42 44 44 43 41 40 39 39 38 38 38 37 37 37 37 35 33 32 32 32 32 30 29 28 27 27 26 25 23 22 21 20 19 18 18 19 19 17 16 17 16 15 16 16 15 15 17 18
44 44 43 41 38 36 35 35 35 36 36 37 39 40 40 40 41 43 44 43 41 39 38 38 39 39 39 39 39 38 36 34 33 31 30 31 30 29 28 27 25 24 24 22 20 18 19 19 17 17 18 17 14 14 16 16 14 14 16 15 15 17 19
42 42 41 39 37 38 38 39 39 38 37 37 39 40 40 40 40 42 43 42 40 39 39 38 38 38 39 39 39 39 38 37 35 33 31 29 29 28 27 26 25 23 22 20 18 17 17 16 15 16 16 16 17 17 17 16 13 12 15 16 17 19 18
41 40 40 41 43 43 42 41 40 38 38 38 38 39 41 40 40 41 40 39 39 39 39 38 38 38 38 39 40 40 39 38 37 36 35 32 30 30 28 25 24 23 22 19 16 15 15 12 12 16 17 18 20 19 17 15 13 13 14 14 15 17 15
41 42 41 41 43 44 42 41 40 39 40 40 39 39 40 40 39 37 37 37 37 36 36 36 37 37 37 38 38 38 38 39 38 38 39 37 35 34 32 29 26 23 22 20 16 16 17 14 14 17 20 20 19 18 16 15 14 13 13 11 8 9 9
42 43 42 42 42 43 43 43 42 42 42 41 39 38 39 39 38 37 36 37 37 35 33 33 34 34 35 36 36 36 35 36 39 40 40 38 36 35 35 34 32 28 25 22 19 17 18 18 18 18 20 22 20 18 17 16 14 13 13 12 9 8 10
43 43 43 42 42 44 45 45 44 43 42 42 41 39 39 38 37 37 38 38 38 36 34 33 32 31 32 33 34 35 34 34 35 36 37 36 35 35 35 35 36 35 32 29 25 22 21 22 22 21 22 24 22 19 16 15 15 16 15 14 13 14 16
44 44 44 43 43 45 46 46 44 43 43 45 42 40 40 39 37 38 38 37 36 34 33 33 32 30 30 30 32 33 33 32 31 31 32 33 32 32 32 33 32 33 34 34 32 28 26 26 26 25 25 25 22 19 18 17 17 17 15 15 15 16 18
43 44 45 45 45 46 47 46 44 43 45 46 42 40 40 37 34 34 33 32 31 29 30 31 32 31 31 30 31 32 32 31 30 29 29 29 29 28 28 29 28 25 26 29 30 30 30 30 29 28 26 24 21 20 19 18 17 15 13 13 14 15 18
42 43 44 47 46 45 45 45 44 44 45 44 42 40 37 34 32 31 30 30 29 28 28 30 32 33 31 30 30 31 32 31 30 29 28 27 27 27 27 28 28 25 23 25 26 29 30 29 30 28 26 24 22 22 20 17 16 15 12 10 9 12 17
43 43 44 45 45 44 44 44 43 43 44 44 41 38 35 32 31 30 29 29 28 26 28 30 32 33 31 29 30 30 31 31 29 29 28 26 24 24 25 27 27 28 27 26 26 27 28 26 26 25 24 22 22 22 21 18 16 16 14 10 6 7 11
44 44 44 44 45 44 42 42 42 42 43 42 39 36 33 31 29 28 27 25 23 24 26 29 32 33 32 31 30 30 31 31 29 27 27 26 24 23 23 24 25 27 28 27 25 24 23 24 25 24 22 21 21 21 21 21 20 19 16 12 9 7 8
44 44 45 45 45 43 42 42 42 42 41 39 37 35 32 29 26 24 22 20 19 21 24 26 28 30 32 31 29 29 30 31 28 26 25 25 24 23 23 25 25 25 25 26 27 24 20 19 23 24 23 22 21 20 22 24 23 21 18 16 14 11 6
43 43 44 44 43 43 42 42 41 40 40 37 35 35 32 27 23 20 19 18 18 19 20 23 25 26 28 29 29 29 30 30 28 26 25 24 22 21 22 24 25 24 23 24 26 26 22 17 17 19 23 24 21 20 22 23 24 24 22 20 18 15 10
43 42 42 43 43 42 42 41 39 37 37 36 35 33 30 25 21 19 20 17 18 18 18 20 22 23 25 26 28 29 29 28 27 26 26 25 24 22 21 21 22 22 22 21 22 24 24 22 19 17 18 23 25 23 22 22 23 25 25 23 21 17 15
42 40 40 42 42 41 41 40 38 36 36 35 34 31 28 24 21 20 18 14 16 17 18 21 21 23 25 26 26 28 27 26 25 24 24 25 25 23 20 19 20 21 21 20 20 20 21 24 24 21 17 18 23 25 25 22 22 23 24 25 25 22 19
40 38 37 38 40 41 43 42 39 37 35 33 32 29 26 23 20 19 17 13 17 19 18 19 22 24 25 25 26 27 26 24 23 22 22 23 23 23 21 19 21 22 22 21 20 19 18 21 24 24 22 19 18 21 23 23 23 23 24 24 25 25 23
37 34 32 34 37 41 45 44 40 37 34 30 28 26 23 21 19 18 16 12 13 19 20 19 21 24 24 24 24 24 23 23 22 22 22 22 21 21 22 21 22 23 23 20 17 16 17 19 23 26 27 25 22 19 18 20 22 24 25 26 25 24 23
35 33 31 31 33 38 43 44 40 36 32 28 24 22 19 17 16 15 14 13 10 12 19 22 21 21 22 22 21 21 20 20 20 20 21 22 21 20 20 22 24 24 21 18 16 16 17 18 21 26 29 27 25 22 21 20 19 20 21 22 21 20 20
32 31 30 30 31 34 38 38 35 32 29 25 21 19 17 15 15 14 12 11 11 9 14 21 20 19 20 20 19 18 17 16 16 17 18 19 19 19 19 19 23 23 20 18 18 17 17 18 20 23 25 25 23 24 26 26 23 19 18 19 19 18 18
31 31 29 28 29 31 32 32 30 28 25 22 19 18 16 13 12 12 11 9 9 8 7 16 19 17 18 18 16 16 15 14 13 14 15 16 17 18 18 18 22 25 22 20 20 18 17 19 20 20 20 22 23 24 26 26 22 18 17 19 19 18 18
32 31 28 25 25 26 27 28 28 27 24 20 18 17 15 12 10 9 8 7 7 5 4 11 16 14 14 13 11 12 13 13 13 13 14 15 17 17 17 17 22 26 24 21 21 19 17 18 19 20 21 22 22 22 22 22 21 19 18 19 19 17 15
32 29 27 26 26 25 24 25 30 30 23 17 15 16 16 14 11 7 5 4 7 4 3 9 12 10 9 9 8 8 10 11 13 14 14 15 17 18 18 17 19 23 23 21 20 19 18 18 18 19 21 21 20 20 20 21 22 20 18 19 20 18 15
35 34 33 32 33 34 32 32 37 35 21 12 11 12 14 14 12 8 3 3 7 7 5 8 10 8 8 9 8 7 8 8 10 12 14 15 16 17 18 18 18 21 23 22 21 19 18 18 18 18 19 20 20 20 20 20 21 19 17 18 20 18 14
40 41 40 37 37 41 42 43 45 40 23 10 10 10 8 8 9 10 8 7 10 9 6 7 10 9 8 8 8 7 7 8 9 10 12 14 15 16 17 17 17 19 21 22 21 19 18 18 18 17 18 19 18 19 19 19 19 18 16 16 17 15 13
40 43 44 41 40 43 45 45 46 46 34 15 7 8 7 7 7 9 12 11 11 10 7 7 9 10 9 9 9 9 9 10 10 11 12 13 14 15 17 18 18 18 20 21 21 20 19 18 19 19 19 19 18 18 18 18 18 17 15 15 15 13 11
41 42 43 42 41 44 46 45 44 47 46 33 18 8 6 6 6 4 10 12 11 8 5 5 8 10 10 10 10 10 10 12 13 14 14 15 15 15 17 18 19 19 20 20 21 21 20 20 20 20 20 20 19 19 19 18 17 16 15 15 14 12 10
44 43 42 40 40 42 45 44 42 43 44 41 35 25 18 17 17 14 12 11 9 6 3 2 4 5 6 8 9 9 10 11 9 8 12 15 16 16 17 18 18 19 20 20 20 20 20 20 20 21 21 21 20 19 19 18 17 16 15 15 14 13 12
40 42 40 37 37 40 42 41 40 39 39 39 38 34 31 32 29 24 21 18 13 9 7 5 2 0 2 4 5 5 5 3 6 12 16 18 18 18 19 19 19 19 19 20 21 21 21 21 20 20 21 21 20 19 18 17 15 15 15 14 13 13 14
35 38 37 34 35 39 42 40 37 34 34 35 36 36 36 33 26 20 20 24 24 20 18 16 13 10 7 6 6 6 6 9 13 16 17 18 20 20 20 20 20 19 18 19 19 18 18 19 18 18 18 18 17 15 14 13 12 12 12 11 10 10 12

ECMWFFLT1_925_spd_081.txt.gz
Wind_Speed
36 38 39 38 36 35 34 34 33 31 30 31 32 32 32 33 33 33 34 36 37 37 36 36 37 38 39 38 36 35 34 34 34 34 33 32 31 30 30 29 23 13 14 21 23 24 24 22 21 22 22 23 23 24 24 24 23 23 23 24 24 23 23
37 38 38 38 37 35 34 34 33 32 32 32 34 35 35 34 34 34 35 37 38 38 38 38 39 40 40 38 36 36 35 35 35 33 33 33 31 31 31 30 27 20 14 15 20 24 24 23 24 25 25 26 26 26 26 26 26 25 25 24 22 22 22
37 38 38 37 35 34 33 33 33 34 34 34 35 36 37 37 35 35 36 37 38 39 38 39 40 40 39 37 35 36 36 36 36 34 33 34 33 32 32 32 31 26 18 15 19 23 24 23 24 26 27 28 28 28 27 27 27 26 25 23 21 21 21
36 37 36 34 33 33 32 33 34 35 34 34 33 34 36 37 37 38 38 38 39 39 39 39 40 41 40 37 35 36 37 36 36 36 35 34 34 33 33 32 31 30 26 20 19 22 24 23 23 26 28 27 28 29 28 28 27 25 25 23 21 21 21
36 35 34 33 33 33 33 33 33 33 33 32 30 31 33 34 35 36 37 38 40 40 40 40 42 42 40 39 37 36 36 36 36 36 35 34 33 33 32 32 31 31 30 26 22 21 22 23 23 25 26 27 27 27 26 25 25 24 24 23 22 21 20
37 35 34 34 33 33 33 33 32 31 32 32 31 32 33 34 36 37 39 41 42 42 42 42 43 43 41 40 40 38 37 36 36 36 35 34 34 33 32 31 30 30 29 27 26 24 22 22 23 22 22 25 26 25 24 23 23 23 24 23 22 21 20
38 36 34 34 34 33 34 34 33 33 34 36 37 38 39 41 41 41 41 43 43 43 42 41 42 43 43 42 41 40 38 37 35 35 35 35 35 33 32 30 30 29 28 27 25 23 22 22 22 22 22 23 24 24 24 23 20 20 23 23 21 20 19
39 37 36 36 36 36 36 36 37 38 39 41 42 41 43 43 41 39 38 39 39 40 40 39 40 41 42 42 42 41 39 38 36 34 33 34 34 33 32 30 29 28 26 26 24 22 22 21 20 22 21 19 20 20 20 22 20 19 21 21 20 18 18
38 38 39 39 39 39 39 39 40 40 39 40 40 40 40 39 37 37 37 36 36 37 37 38 40 42 42 42 43 43 41 40 39 35 32 32 32 31 32 31 29 27 25 24 21 19 20 18 18 20 18 17 20 20 19 20 21 20 20 20 19 18 17
40 39 40 40 41 41 40 40 41 40 39 39 40 40 39 38 37 37 37 37 36 38 40 40 41 43 43 42 44 45 45 45 43 40 37 35 33 32 32 31 28 27 25 22 18 18 18 14 13 18 20 19 21 22 21 20 19 19 18 16 15 15 15
41 40 40 41 42 43 42 42 41 39 40 41 41 41 41 39 38 37 37 38 38 40 43 43 42 43 43 42 43 44 47 47 45 43 42 41 40 38 37 34 30 27 26 23 19 19 19 15 13 18 22 22 21 21 22 21 20 19 16 13 9 8 9
40 41 41 41 42 43 44 44 42 40 42 43 43 44 45 44 42 40 39 39 39 40 41 41 40 41 42 42 42 42 43 45 46 46 45 44 44 43 42 41 37 31 28 25 21 19 20 19 18 19 23 24 21 20 21 21 21 20 18 15 10 7 8
41 42 42 42 43 44 45 46 44 42 43 44 46 48 49 48 45 42 40 41 41 41 41 41 40 40 42 43 42 40 40 40 42 43 44 44 44 44 44 45 44 40 36 32 27 23 23 24 22 21 23 25 23 21 21 20 20 20 19 17 15 15 16
41 42 43 43 43 45 47 47 45 43 44 47 49 49 48 47 44 40 39 39 38 38 39 39 39 38 39 39 39 38 37 37 37 37 39 40 41 41 42 43 43 42 41 39 35 31 28 27 27 26 26 26 25 25 24 22 21 21 21 20 19 19 19
41 42 44 44 44 45 48 48 46 45 47 49 49 48 46 44 41 38 36 36 35 35 35 36 36 36 36 35 35 36 37 37 36 36 36 37 37 36 35 37 38 37 36 37 36 35 32 30 30 30 29 28 27 28 27 25 24 23 21 19 17 16 16
42 43 44 46 45 45 47 49 48 47 49 50 49 48 46 43 38 35 34 34 34 34 34 34 35 35 34 33 32 34 38 39 38 37 35 34 33 32 30 31 33 32 31 32 32 32 33 33 32 31 31 30 28 27 26 25 23 20 17 14 10 10 12
43 44 44 45 46 45 46 49 49 47 48 51 50 48 46 41 36 34 33 34 35 34 34 35 36 35 34 32 30 32 37 38 37 36 34 31 30 29 27 26 28 29 29 30 30 30 31 33 33 32 30 29 28 27 27 25 20 18 17 13 7 6 8
44 45 45 45 46 46 46 48 49 47 47 49 50 48 45 40 35 32 32 32 33 33 32 33 34 35 34 32 31 32 34 36 35 33 31 29 27 26 24 22 23 25 26 25 24 24 24 25 27 29 29 27 26 26 29 28 24 22 21 14 8 7 6
43 44 46 47 47 47 45 46 49 48 46 47 49 48 46 41 32 27 28 29 29 29 29 28 29 31 32 32 33 33 33 35 36 31 29 28 25 21 21 21 21 23 24 24 23 22 20 18 19 22 25 28 27 25 28 31 28 27 24 18 13 12 6
42 43 46 47 47 47 47 46 47 47 46 47 49 48 46 40 30 23 23 25 25 25 25 25 25 26 28 29 31 32 33 35 35 29 28 28 24 20 20 22 23 24 25 25 25 24 22 21 20 19 20 25 29 26 26 29 29 28 26 23 19 15 10
42 41 44 47 47 47 48 48 48 48 45 46 48 47 44 38 29 23 22 23 24 24 23 23 23 22 24 25 28 31 32 33 32 27 28 29 27 25 26 26 26 26 25 24 23 21 21 21 21 20 18 20 27 29 26 26 28 27 26 26 24 18 15
41 40 42 46 48 48 50 50 50 50 46 44 46 46 41 34 27 24 22 22 21 21 21 23 23 23 23 23 25 28 29 29 28 25 28 29 28 28 27 25 25 24 22 21 20 19 20 19 20 21 20 16 20 28 27 25 26 27 25 25 25 22 18
40 39 38 42 47 50 52 52 50 50 48 45 45 43 38 30 23 21 21 20 16 15 17 20 21 23 23 22 24 25 25 26 24 21 26 29 28 28 25 23 23 23 21 21 20 19 19 19 19 21 21 16 14 22 27 26 24 25 25 24 24 22 19
38 35 33 37 42 46 51 52 49 47 47 45 42 38 32 24 18 18 18 15 11 10 14 17 19 21 21 21 23 24 21 21 21 19 21 26 27 27 24 22 23 23 22 20 19 18 17 19 20 21 22 20 16 17 23 26 24 22 24 25 24 21 19
35 33 31 33 36 40 47 48 45 44 44 43 39 32 24 18 15 15 13 10 9 11 12 14 16 20 20 20 21 20 17 17 17 16 17 22 25 25 23 22 24 24 22 18 17 17 16 17 19 22 24 26 23 18 19 24 25 22 21 21 21 20 20
31 31 32 32 33 37 41 42 43 43 43 43 38 26 17 13 11 10 10 9 11 15 15 14 14 17 18 17 15 14 11 9 9 9 11 15 20 22 21 21 24 24 21 19 18 18 18 18 18 21 24 26 25 21 18 19 23 23 22 22 22 21 22
31 30 29 29 31 33 34 37 42 43 44 47 40 23 13 13 11 9 9 10 13 15 14 12 11 13 14 12 10 9 7 5 5 6 7 8 10 14 15 19 25 27 24 24 23 21 20 20 18 18 20 21 21 22 21 19 19 18 18 22 24 22 21
31 31 30 29 29 29 28 31 37 41 47 50 35 15 11 13 12 10 9 9 11 12 9 8 7 9 10 9 8 5 4 4 4 6 7 5 5 7 8 12 21 27 25 24 24 21 18 18 17 17 18 19 20 22 23 22 20 16 14 18 21 18 15
32 31 32 30 28 26 26 28 34 42 51 51 34 11 11 14 13 10 8 7 8 7 5 3 2 3 6 7 5 2 2 3 4 5 6 7 7 7 8 9 15 21 21 21 21 19 17 17 17 17 18 19 20 21 22 23 23 20 16 16 17 15 12
35 34 35 33 30 30 30 32 38 47 52 52 46 29 13 12 12 8 3 3 6 3 1 1 3 4 5 6 5 3 2 3 5 7 8 10 11 11 12 12 13 16 19 20 20 20 18 17 17 17 18 18 18 18 21 22 23 21 18 16 16 15 12
36 39 39 36 34 37 39 41 45 50 51 49 49 43 30 11 7 9 5 4 6 4 2 2 4 4 3 4 3 3 4 5 7 9 11 12 13 13 13 14 14 15 17 19 19 19 18 17 17 17 18 18 17 17 20 21 21 22 20 18 17 15 13
36 40 40 38 36 38 42 45 45 47 49 48 45 44 41 32 16 8 8 6 4 3 3 2 5 3 3 5 4 5 8 9 9 9 9 10 13 14 14 15 15 15 17 18 18 18 18 17 17 17 19 19 18 18 20 20 19 21 20 18 17 16 14
33 38 39 38 37 38 41 44 44 44 45 46 45 42 39 39 36 28 24 21 13 9 9 4 3 5 4 7 8 9 10 11 11 11 10 10 11 13 14 15 16 16 18 19 18 18 18 18 17 18 19 19 19 19 19 18 17 19 18 16 15 15 14
39 40 39 38 38 38 40 43 44 42 41 41 42 40 38 39 42 39 38 36 27 19 17 14 8 6 7 5 4 5 7 9 11 12 13 13 13 13 15 16 17 18 18 19 19 19 18 17 17 18 18 18 18 18 18 16 16 17 16 15 15 14 14
41 42 39 35 36 38 39 41 41 40 38 39 38 38 41 44 41 34 33 34 30 24 20 20 18 16 16 16 15 13 10 7 6 8 11 14 15 14 16 18 19 19 19 18 19 19 19 18 17 19 20 18 17 17 16 15 16 16 15 15 15 15 14
36 40 37 33 33 36 37 39 39 37 35 35 36 37 39 38 31 24 23 24 25 23 21 22 21 20 20 22 23 22 20 16 12 8 2 7 12 15 17 17 18 18 18 17 17 17 19 19 18 19 21 20 18 18 18 17 17 17 16 16 17 16 15

ECMWFFLT1_925_spd_084.txt.gz
Wind_Speed
30 30 31 33 33 32 30 29 28 27 26 27 28 28 28 29 29 30 32 33 34 33 31 31 33 36 36 35 36 38 37 36 36 35 36 35 34 34 33 32 24 14 15 21 21 22 26 24 22 25 26 27 28 26 25 26 27 27 27 28 27 27 26
30 31 31 31 31 30 29 27 27 27 27 28 30 30 29 28 28 29 31 33 35 35 33 33 35 37 37 35 35 37 39 39 38 36 36 36 35 34 34 33 30 21 14 17 20 22 26 25 23 26 27 27 30 29 27 28 29 29 29 29 29 29 28
30 31 30 30 30 30 29 28 28 29 29 29 31 31 30 30 30 31 32 34 36 37 35 35 36 39 38 35 34 36 37 38 39 38 37 38 37 36 36 35 34 28 19 17 20 23 26 25 23 26 28 27 29 31 30 30 31 31 31 31 31 31 30
30 30 30 30 31 31 29 29 29 30 30 29 30 31 31 31 32 33 34 36 37 37 36 34 34 36 37 35 34 37 37 37 39 39 37 38 38 37 37 37 35 33 29 23 20 22 27 26 24 26 29 27 27 30 32 32 32 33 34 34 33 32 32
30 29 29 29 30 30 30 29 29 29 30 29 29 30 31 33 35 37 39 41 42 41 40 38 38 40 40 38 37 38 39 38 39 40 38 37 38 37 37 37 35 35 34 28 23 23 26 27 25 25 27 27 27 29 30 32 33 34 34 35 34 33 32
31 30 30 30 31 31 31 31 30 31 32 33 33 34 36 39 42 43 44 45 46 45 44 43 43 44 44 41 40 39 38 38 37 39 39 37 37 37 36 35 35 34 33 31 28 27 26 26 25 24 24 25 27 28 28 29 31 33 34 34 32 32 32
34 33 31 31 33 33 34 35 36 37 37 38 38 39 41 43 43 45 45 45 45 45 45 45 45 45 44 42 41 40 39 39 38 37 39 39 37 36 35 34 33 33 32 30 28 27 26 26 26 24 24 25 27 29 30 29 27 26 29 31 31 32 32
37 35 34 35 36 37 36 37 39 39 39 41 41 42 42 43 44 46 48 49 48 46 44 43 42 41 41 40 40 40 39 39 38 36 36 38 38 36 35 34 32 31 30 28 26 24 26 26 24 24 24 23 23 24 26 28 25 22 24 28 30 32 31
37 38 39 39 39 39 39 39 40 40 40 40 41 40 41 42 43 43 44 43 42 38 36 36 36 37 38 39 39 39 38 38 39 37 35 35 37 37 36 34 32 30 28 26 23 22 23 22 21 22 22 20 22 23 24 25 25 24 24 24 26 29 30
39 40 40 41 41 41 40 41 42 41 40 39 39 39 39 38 38 36 35 35 35 35 35 36 38 40 41 42 42 43 42 42 42 42 41 40 39 39 36 34 32 30 28 25 20 20 21 16 15 22 23 21 24 26 25 24 24 24 23 19 19 22 26
40 40 40 40 41 42 42 43 43 41 40 40 40 40 40 39 39 38 38 39 39 40 41 41 43 44 44 46 47 47 46 46 45 45 45 45 44 45 42 37 33 30 29 27 22 21 22 17 16 23 25 24 26 25 24 24 25 24 21 17 13 11 16
40 40 40 40 41 43 44 44 43 41 41 42 42 43 45 46 46 43 42 43 42 42 42 42 43 44 45 46 46 46 45 45 45 44 44 44 45 47 49 45 41 37 33 30 25 22 23 22 22 24 26 27 26 23 24 25 25 24 23 19 15 12 13
40 41 41 40 41 43 45 46 45 43 43 45 46 46 47 48 48 45 43 43 42 41 41 40 40 41 43 43 43 43 43 44 45 44 43 43 43 45 48 50 48 46 42 38 32 27 27 29 28 26 27 29 27 24 24 24 25 25 24 22 20 20 20
42 42 42 42 42 44 45 47 47 44 44 46 48 49 48 48 47 45 43 43 42 41 41 40 39 40 41 41 40 40 41 41 42 41 40 40 40 41 44 47 47 46 45 42 38 34 33 34 33 30 29 29 29 29 27 26 26 26 25 25 25 25 26
42 43 44 44 43 44 46 48 47 45 46 48 48 49 49 48 46 45 44 45 43 42 42 41 40 40 40 40 40 40 40 40 39 38 37 38 38 38 40 41 43 43 42 39 36 35 36 37 36 35 33 31 32 34 33 32 31 31 29 28 26 24 25
42 43 44 45 44 43 46 49 48 46 48 49 49 48 49 47 45 44 44 44 44 43 42 41 41 40 40 40 40 40 41 42 39 37 36 35 35 36 36 37 40 40 39 38 36 35 35 36 37 37 36 34 34 36 35 32 29 30 28 23 17 16 19
43 43 43 44 45 44 44 48 49 47 47 50 49 49 49 47 44 42 42 43 43 43 42 41 41 40 40 39 38 38 41 42 40 39 37 34 33 33 33 34 36 37 37 38 37 35 35 37 38 38 36 35 35 35 35 30 24 24 25 18 10 8 12
43 43 43 43 44 43 43 45 48 47 46 48 49 49 50 48 44 42 41 41 41 41 41 41 40 39 38 38 37 38 41 42 41 39 36 32 31 30 31 31 31 31 33 34 34 34 35 37 41 41 38 37 36 35 36 34 27 25 24 17 10 8 10
41 42 43 43 43 43 42 42 46 48 46 45 48 51 52 49 43 39 38 38 37 36 36 37 36 36 36 37 38 39 41 42 41 39 35 31 27 26 27 29 28 27 28 30 29 29 29 30 35 39 38 37 36 33 35 38 33 29 26 20 16 14 10
40 41 42 43 43 43 42 41 45 48 46 45 48 51 52 48 41 36 34 33 32 30 29 31 32 32 34 36 38 39 40 39 37 36 36 32 26 24 26 28 27 26 28 29 27 25 23 22 24 30 33 34 34 32 33 36 35 33 31 26 21 19 14
40 39 41 43 43 42 43 44 45 46 46 46 48 51 51 47 43 39 36 32 29 26 25 26 28 30 33 35 35 37 38 36 34 33 34 33 29 28 29 28 27 28 29 29 27 24 23 21 19 21 24 27 29 29 29 33 34 34 33 31 27 22 18
39 38 40 43 44 43 44 46 46 46 46 46 48 52 53 51 49 46 38 29 24 23 23 25 27 30 33 32 31 34 36 34 33 30 27 30 33 33 32 29 28 28 27 25 24 22 21 22 20 18 18 19 21 21 23 28 33 33 32 33 31 26 23
38 37 38 41 44 45 45 47 48 48 46 45 48 53 58 59 54 44 31 20 18 21 23 26 28 29 30 28 28 32 32 31 30 26 20 27 35 34 31 29 27 26 23 21 20 19 18 19 20 20 19 19 19 18 18 23 30 33 32 31 31 29 28
37 35 33 36 41 45 47 48 48 47 46 47 50 54 59 61 52 32 20 17 15 17 18 21 25 26 26 27 28 28 26 23 22 19 17 25 31 30 28 26 24 23 21 18 17 16 16 17 19 21 20 20 20 19 18 21 28 31 31 31 30 29 29
34 32 31 32 34 40 46 47 46 46 47 49 53 56 58 58 46 25 15 15 15 13 13 17 21 22 22 25 26 21 16 14 13 13 13 20 26 26 24 25 24 22 20 17 15 14 15 17 19 20 20 19 20 20 18 20 25 28 29 29 28 27 27
31 30 30 30 30 35 41 42 42 44 47 51 56 56 54 51 40 23 15 14 14 14 15 17 19 20 22 24 22 15 11 10 7 7 6 13 23 23 22 24 25 22 19 17 16 16 16 17 18 19 19 19 21 22 20 20 23 25 26 27 25 23 24
31 29 28 28 29 33 36 36 38 41 47 52 54 50 48 46 34 19 15 15 15 16 16 17 18 19 20 20 15 9 7 6 5 7 6 4 14 18 22 26 27 25 23 22 20 19 19 19 19 19 20 21 23 24 22 21 22 23 23 24 23 20 20
32 30 28 28 29 30 31 32 34 39 45 50 48 43 45 43 28 13 12 15 13 13 14 14 14 15 14 11 8 7 6 6 6 7 9 7 7 12 20 25 26 25 24 23 21 19 17 17 17 18 19 21 22 24 23 21 19 20 21 23 21 17 15
33 30 29 30 30 28 28 29 33 39 45 48 46 42 43 43 31 17 15 14 10 10 13 12 11 10 7 5 5 6 6 6 5 5 6 7 7 8 13 18 20 20 20 19 19 17 15 16 17 17 17 18 19 21 23 21 18 18 20 22 20 15 14
34 32 31 31 30 29 28 29 34 41 46 47 46 43 41 42 39 32 23 15 11 14 15 12 10 10 8 5 4 4 4 4 3 2 2 3 4 5 8 13 16 18 18 17 17 17 17 17 17 16 16 17 17 19 20 20 18 16 17 19 19 15 14
33 33 34 34 32 31 32 33 35 40 44 45 44 42 40 38 39 37 31 26 25 25 21 16 14 13 13 11 9 6 6 5 3 2 2 4 5 6 6 10 14 15 16 16 16 16 16 16 16 16 15 16 17 17 19 20 20 17 15 14 15 14 13
32 34 37 37 36 34 35 36 36 38 41 42 41 40 39 35 34 35 35 37 37 30 22 20 18 17 18 17 15 14 13 11 9 7 6 6 8 10 10 11 12 13 15 17 17 16 15 15 15 16 16 16 16 17 18 20 20 18 16 13 12 12 12
32 33 36 38 37 36 37 38 36 36 38 39 39 39 38 34 31 32 36 39 35 25 21 21 20 19 20 19 17 17 17 14 12 11 11 9 9 11 12 13 13 12 14 16 17 16 16 16 16 16 16 16 16 16 18 21 21 20 18 15 12 11 11
34 33 33 34 35 36 37 37 36 35 36 37 37 38 36 32 32 35 40 40 32 23 21 21 20 20 21 20 19 18 18 16 15 13 11 12 11 11 13 15 15 15 15 16 16 16 16 17 17 16 16 17 16 15 17 20 21 21 19 15 13 12 12
37 36 33 32 32 34 35 36 35 34 33 35 36 36 35 33 33 36 37 35 30 25 23 21 20 20 22 22 20 20 20 18 18 16 12 11 13 13 12 13 17 18 17 17 16 15 16 17 17 16 17 19 18 15 16 17 18 19 19 18 16 15 14
37 37 33 30 31 32 34 35 35 33 32 33 34 35 35 33 30 27 26 26 26 24 23 22 21 21 23 24 23 23 24 23 23 22 16 7 9 13 13 13 17 18 17 17 16 15 15 16 15 15 17 19 17 17 17 17 18 19 19 19 18 17 16

ECMWFFLT1_925_spd_090.txt.gz
Wind_Speed
23 24 24 25 25 25 25 24 24 24 23 24 24 23 22 22 22 22 22 22 21 21 20 21 22 22 21 21 21 21 19 19 18 18 19 18 18 20 20 21 22 17 17 24 28 30 30 28 27 29 29 29 30 26 24 25 28 28 26 23 22 22 23
25 25 25 26 26 26 26 26 26 26 25 26 27 25 23 23 23 23 23 23 23 22 21 21 23 24 23 21 21 21 20 20 19 19 20 20 19 20 20 19 21 20 17 19 24 29 32 30 28 30 29 28 30 30 27 27 28 29 28 26 24 22 22
26 26 26 27 27 26 26 27 26 26 26 26 26 25 25 24 24 25 25 25 25 24 23 23 25 25 23 21 21 21 20 20 20 19 20 21 20 21 22 20 20 22 20 19 21 25 31 31 28 29 30 28 30 31 30 31 31 30 30 30 27 24 24
26 27 27 27 27 26 26 27 27 26 25 25 24 25 26 25 25 25 26 25 25 24 23 24 24 23 21 20 22 22 21 20 20 20 20 22 21 21 23 22 22 23 24 22 21 23 28 31 29 29 30 29 29 31 32 33 33 32 31 32 30 26 25
26 26 26 26 26 26 26 26 26 26 25 24 25 25 26 26 25 25 25 25 24 23 23 22 24 24 22 22 23 23 21 20 21 21 21 22 22 21 21 22 22 23 24 24 23 22 25 29 30 30 32 30 29 30 31 32 34 33 32 32 32 29 27
25 25 25 25 25 25 25 25 25 25 24 24 25 25 26 26 25 25 25 24 24 24 23 23 24 24 23 24 24 23 22 22 22 22 23 23 23 23 23 23 23 24 24 25 26 24 24 26 29 31 32 31 30 30 30 30 31 32 30 31 33 32 28
24 24 23 24 24 24 24 24 24 24 24 24 24 25 25 24 23 23 24 24 24 24 25 26 26 26 27 28 28 29 30 29 26 24 24 24 23 23 24 25 25 25 25 26 26 24 23 24 26 29 32 33 31 31 32 31 30 29 28 29 30 30 28
22 22 21 22 23 23 22 22 22 22 22 23 24 25 25 26 26 27 30 32 33 32 32 33 33 33 36 37 37 39 40 39 35 28 25 25 24 23 24 26 26 25 25 26 25 24 23 23 24 26 30 33 31 29 31 32 31 30 29 28 28 28 27
20 21 22 23 23 22 22 22 23 23 23 25 28 29 30 33 35 37 39 41 42 42 41 41 41 41 43 43 43 44 43 42 41 34 29 28 26 26 27 28 27 26 25 25 24 24 23 22 22 23 25 29 30 29 30 32 32 32 30 27 29 29 26
21 22 23 25 25 25 25 25 25 27 29 32 35 34 34 36 36 36 36 36 37 38 37 37 38 38 39 40 41 42 41 41 41 40 38 35 31 30 30 29 28 28 28 26 24 24 23 19 19 24 25 27 31 31 31 31 31 31 29 25 25 28 27
24 25 24 25 26 27 27 28 28 31 35 38 39 38 37 36 35 34 33 32 31 31 31 31 31 31 32 34 35 37 40 41 41 41 42 41 40 37 35 32 29 28 28 28 26 26 25 21 21 25 25 26 30 32 31 31 31 31 29 23 17 18 22
26 26 25 25 27 28 28 29 31 33 36 39 39 39 38 36 32 31 31 30 29 30 30 30 30 29 29 31 34 36 40 43 42 42 42 43 45 45 45 43 40 35 32 30 28 28 29 28 26 27 26 26 28 29 29 31 32 30 29 26 19 17 20
26 27 26 26 28 29 29 31 34 35 36 39 39 38 39 36 32 30 30 31 30 31 31 31 32 30 29 32 33 35 39 43 44 44 44 44 44 45 48 50 51 49 44 40 37 34 34 34 31 30 30 28 27 27 27 29 31 31 30 27 24 25 25
25 26 27 27 29 30 31 34 37 36 36 39 39 38 38 36 32 30 30 31 31 31 32 33 34 33 32 33 33 34 38 43 47 49 49 46 44 44 43 44 48 50 49 47 44 41 41 40 36 35 35 31 29 30 31 30 28 28 30 28 27 28 28
24 25 26 28 29 30 32 36 37 35 37 39 38 37 37 34 31 30 30 31 31 32 33 35 36 37 37 38 38 38 40 43 46 48 47 46 45 43 40 39 40 43 44 44 43 43 45 43 40 40 40 35 32 33 36 38 34 30 30 30 28 28 29
23 24 26 27 27 28 33 38 37 35 38 40 39 39 37 32 30 29 29 31 32 33 34 35 37 38 39 42 46 48 47 45 44 42 40 41 42 40 37 36 38 41 44 46 46 46 48 45 42 43 44 42 40 36 35 38 38 36 33 29 24 23 26
24 24 25 26 27 28 32 38 39 37 39 41 40 40 37 31 29 29 29 31 33 33 34 35 37 39 41 44 47 48 47 47 47 43 38 38 41 39 34 33 37 40 43 47 50 49 50 49 46 46 48 49 49 45 39 35 32 32 31 25 17 15 20
23 23 23 25 29 30 32 36 40 39 40 41 40 39 36 30 27 28 29 31 33 33 34 37 39 42 45 46 46 46 47 48 49 47 38 33 36 37 33 33 37 39 39 43 47 46 46 47 46 46 49 51 50 50 48 41 34 33 32 26 18 14 16
21 23 26 29 32 33 32 35 40 40 39 40 39 38 35 29 26 28 30 31 32 34 34 35 37 39 42 44 45 46 46 46 46 44 38 33 28 25 29 35 36 36 36 36 38 39 40 42 43 42 44 46 46 48 49 46 42 39 34 29 24 21 16
25 27 32 33 32 33 33 33 37 39 39 39 39 38 36 31 27 28 30 31 32 33 33 33 34 36 38 39 38 37 37 37 37 35 33 32 25 21 30 38 35 33 34 33 32 34 35 36 38 37 36 37 39 42 46 47 46 44 40 34 27 24 20
30 29 31 29 26 28 30 28 30 34 37 38 38 39 38 34 30 30 31 31 31 30 30 31 33 34 34 34 32 32 32 32 32 28 25 25 28 31 37 38 31 30 33 32 31 32 32 32 33 33 31 31 32 35 39 42 42 42 42 39 31 26 23
32 28 26 24 22 23 24 23 24 28 32 35 37 38 38 37 36 35 32 29 28 29 30 31 31 32 34 36 35 33 31 29 28 25 21 21 27 33 38 36 32 30 30 29 30 30 29 30 30 30 30 29 29 30 33 37 37 37 40 43 40 33 26
26 23 23 23 22 22 23 23 23 26 30 33 35 37 39 40 40 37 33 29 28 28 29 31 31 33 37 39 36 31 27 25 23 22 22 24 27 29 33 33 32 30 29 28 28 28 27 28 28 28 26 26 26 27 30 33 34 34 39 43 41 36 33
20 21 22 23 24 24 24 24 25 26 28 32 34 35 39 42 39 36 34 31 27 26 28 31 33 34 37 36 31 27 24 21 21 20 22 24 25 25 27 29 29 30 30 29 27 25 25 25 25 24 23 23 24 24 25 28 29 31 36 40 38 36 37
20 21 22 23 25 26 26 25 25 25 27 30 31 32 38 40 36 34 33 29 25 26 29 31 32 33 33 32 29 26 22 18 18 21 21 21 22 22 22 23 25 26 26 25 25 24 24 24 23 22 21 22 21 20 20 22 23 24 29 34 35 35 35
21 21 22 23 26 27 27 26 25 25 27 28 28 31 37 37 32 32 31 25 23 27 29 29 30 29 29 28 26 23 19 17 17 19 19 18 20 21 21 20 21 23 23 24 25 24 23 23 21 20 20 20 19 18 18 19 18 19 23 26 26 23 23
21 22 23 25 27 26 26 25 25 25 26 28 30 34 36 32 29 30 27 21 22 27 28 26 26 26 25 26 25 22 20 19 19 18 17 17 19 19 17 17 17 18 19 20 21 20 18 18 17 15 16 16 16 17 18 17 16 16 18 19 18 16 15
22 23 25 26 26 25 24 24 24 24 27 31 35 38 35 29 28 29 24 22 26 29 26 23 23 22 23 24 24 23 22 21 20 20 18 18 20 20 16 12 10 8 10 12 13 13 11 10 10 11 12 14 15 15 16 16 16 15 15 16 16 15 14
26 27 26 24 23 22 23 23 23 26 31 35 38 39 34 29 29 28 24 26 30 27 22 20 20 20 21 23 22 21 21 21 21 22 21 20 21 21 17 11 6 3 6 8 9 10 10 9 9 9 10 13 15 15 14 16 17 15 15 16 16 14 13
29 28 25 22 21 21 22 24 26 30 35 36 36 36 33 31 31 28 26 28 28 22 18 18 18 18 19 20 20 20 20 20 21 21 21 21 21 21 18 13 8 3 1 5 8 9 9 9 9 9 10 11 14 14 14 15 16 16 14 15 15 13 13
27 26 24 23 23 23 23 25 27 31 34 35 34 34 33 32 31 27 25 27 24 19 17 17 17 17 18 18 18 19 20 20 20 20 20 21 21 20 18 14 9 4 1 2 5 7 8 9 9 10 10 11 11 12 13 14 15 16 15 14 14 13 12
25 25 25 25 25 26 26 26 28 30 32 33 33 32 31 31 29 25 24 23 20 16 16 17 16 16 18 18 18 19 19 20 20 20 20 20 19 19 18 16 12 6 2 3 4 6 7 8 9 9 10 11 11 12 13 14 15 16 16 15 14 13 13
22 22 25 27 27 27 28 29 30 31 32 32 31 30 30 29 26 22 21 20 17 15 17 17 17 17 18 18 19 19 19 20 20 20 20 19 19 19 19 19 18 12 6 5 5 6 7 7 8 9 10 10 12 12 13 13 14 15 16 15 14 13 14
23 21 24 28 29 27 28 30 30 30 30 30 28 27 28 26 22 19 18 17 16 16 17 17 17 18 18 19 19 20 19 19 20 20 21 21 20 20 20 20 19 14 8 6 6 6 8 7 8 9 10 10 11 12 13 13 14 15 15 15 14 14 15
24 22 25 28 27 26 28 29 28 29 29 27 24 24 25 23 20 19 20 19 18 17 18 17 17 18 19 20 20 20 20 20 20 20 21 22 22 22 21 20 18 14 10 8 8 7 7 8 8 9 10 10 11 12 13 13 14 15 16 16 16 15 15
20 21 24 24 21 22 26 27 27 28 28 24 22 22 20 18 18 19 19 18 18 18 18 18 17 18 19 20 20 20 21 20 19 19 20 22 23 22 21 21 20 19 15 10 10 10 9 8 9 9 10 11 11 13 13 13 14 15 16 17 17 16 15

ECMWFFLT1_925_spd_093.txt.gz
Wind_Speed
20 21 22 23 24 25 25 25 25 25 25 26 26 25 25 25 24 25 26 26 25 24 24 24 25 26 25 24 24 24 22 22 21 21 21 21 21 22 21 20 20 15 14 19 23 27 28 26 26 28 28 29 29 29 29 29 29 29 28 27 26 26 27
21 22 23 24 25 27 27 26 27 26 26 26 26 26 26 25 26 26 26 27 27 27 25 26 27 27 26 24 24 25 23 23 22 21 23 22 21 22 22 20 21 20 16 16 20 25 27 24 24 26 26 26 28 29 28 28 28 28 28 28 27 27 27
22 23 24 25 27 27 27 27 27 26 26 26 27 27 27 26 27 27 27 27 28 28 27 27 28 29 27 25 25 26 24 23 23 22 23 23 22 23 23 22 22 22 20 19 19 22 26 24 22 25 26 26 28 29 29 29 29 28 28 28 28 29 28
22 24 25 26 26 27 27 27 27 27 27 27 27 27 28 28 27 27 28 28 29 28 27 27 27 27 25 24 24 25 24 22 22 22 22 23 22 22 23 22 22 23 23 21 20 21 24 25 22 22 24 23 26 28 28 29 30 29 29 30 30 30 30
24 24 25 26 26 27 28 28 28 27 27 27 26 27 28 28 28 28 28 29 29 28 26 26 26 25 23 23 24 24 23 22 22 23 23 23 23 22 22 22 22 22 23 22 22 22 23 25 24 24 23 22 23 27 29 30 31 30 29 30 31 31 32
24 24 25 26 27 27 28 28 28 28 27 27 26 27 28 28 28 28 28 28 28 27 26 26 26 26 24 24 25 25 24 24 24 25 25 26 25 24 24 24 23 23 23 23 24 23 23 25 25 24 24 22 22 24 26 28 31 33 32 32 31 32 32
25 25 25 26 26 26 27 27 27 27 27 26 26 27 27 27 27 27 27 27 27 27 26 27 27 27 27 28 28 29 30 29 28 28 28 28 28 27 27 27 26 25 25 24 24 23 23 24 24 25 26 24 21 23 25 26 27 29 30 30 30 31 31
25 25 25 25 25 25 26 26 25 25 25 25 26 25 25 26 25 25 27 28 29 30 30 31 31 32 32 34 35 36 37 36 34 32 31 30 30 28 27 27 26 25 25 24 24 23 23 23 23 23 25 23 20 20 23 24 25 27 27 28 29 30 29
24 24 24 24 24 24 24 23 23 23 23 25 27 27 26 27 26 27 29 30 32 35 35 36 36 36 38 39 40 41 41 41 39 37 34 32 30 29 28 27 26 24 24 23 23 22 22 21 21 22 22 21 19 19 21 22 23 27 29 29 29 30 30
22 21 22 22 23 23 23 23 24 26 28 30 32 33 32 31 31 31 32 32 33 34 34 35 36 37 39 39 40 42 42 42 42 40 39 36 32 29 28 27 27 26 25 24 22 22 21 18 19 21 22 22 22 21 22 22 22 25 28 27 25 26 28
20 21 22 23 24 25 26 27 27 29 33 36 36 37 37 35 33 33 33 32 32 32 32 32 31 31 33 34 35 38 40 42 43 43 43 43 41 38 35 32 29 28 28 26 24 24 24 21 20 23 23 24 24 23 22 23 24 24 25 23 17 15 20
22 23 23 24 26 27 28 30 30 32 35 37 37 37 37 35 32 31 31 30 30 31 31 31 31 31 32 33 34 36 37 39 41 42 43 45 46 46 44 42 39 35 31 30 28 26 25 25 24 24 25 25 25 23 23 25 25 24 24 23 19 16 18
24 24 24 26 28 29 30 32 33 34 36 38 38 37 37 37 35 31 29 28 28 29 30 30 31 31 32 33 34 35 36 38 39 40 41 43 44 45 47 48 49 46 41 36 32 28 28 31 29 26 27 28 26 24 24 25 25 24 23 22 21 21 23
24 25 26 28 30 30 31 34 35 35 37 38 38 37 37 38 35 30 28 28 28 29 29 30 30 31 32 33 33 33 35 37 39 40 40 41 42 44 46 46 48 50 49 46 39 34 33 37 36 33 32 32 30 28 28 26 25 24 23 26 27 28 28
22 24 26 29 29 29 32 35 35 35 38 39 37 36 37 35 30 27 28 29 28 29 29 30 31 31 33 34 35 35 36 38 39 40 40 41 42 43 45 46 47 48 49 49 47 42 40 41 40 39 39 36 34 34 34 32 29 27 27 30 33 34 34
20 21 25 27 28 28 33 37 37 36 38 39 36 36 37 32 27 26 27 28 29 29 30 30 30 31 33 34 36 38 39 40 41 41 41 42 45 47 48 48 50 49 47 48 48 47 46 45 43 44 45 44 41 40 39 35 33 31 29 28 27 27 29
20 21 23 26 27 27 31 38 39 37 38 39 36 36 36 30 25 26 27 27 29 29 29 30 30 32 33 35 37 40 42 44 45 44 43 41 42 46 49 50 51 49 46 46 48 49 49 49 48 48 49 49 47 47 43 35 30 30 30 24 19 17 21
22 21 21 22 25 26 29 35 39 37 37 38 34 34 34 29 24 25 26 27 28 28 29 30 32 33 34 36 39 41 42 44 45 44 43 41 39 40 44 48 49 46 44 44 46 48 49 49 49 48 47 47 46 46 44 37 32 32 30 24 19 16 18
21 21 21 22 26 29 30 35 38 36 35 36 34 34 35 30 24 23 25 25 27 28 29 30 31 31 32 34 36 38 40 44 46 43 39 38 36 33 36 42 45 43 43 43 43 44 44 44 44 43 41 41 40 40 41 40 38 36 32 27 25 23 18
21 23 26 28 30 32 32 33 35 34 34 35 35 35 35 29 22 22 25 26 27 29 30 29 28 29 30 31 35 40 42 44 46 45 41 39 35 29 31 39 41 42 45 44 41 42 42 39 40 40 39 38 37 37 39 40 40 38 35 32 31 28 22
25 27 29 30 30 29 29 30 30 31 32 33 34 36 34 28 24 25 26 27 29 28 27 28 28 28 29 33 39 43 44 44 46 46 43 41 35 30 32 36 36 37 42 40 36 36 35 33 33 35 35 35 34 34 35 38 39 38 38 38 36 32 27
29 28 28 28 26 25 26 26 25 27 28 30 33 36 35 32 31 30 28 28 29 27 26 28 29 27 30 38 43 44 43 44 44 42 40 38 34 31 30 30 28 29 30 28 25 26 26 26 28 28 29 30 31 31 32 35 38 39 39 40 41 38 33
25 24 24 24 23 23 24 24 23 25 26 28 31 35 36 34 33 33 33 30 28 28 29 29 26 26 33 42 44 42 41 41 40 37 36 36 34 27 23 23 23 23 23 22 22 23 23 25 26 26 26 27 28 30 32 33 36 38 39 40 41 42 41
21 21 22 22 22 23 23 23 24 25 25 26 29 32 34 33 33 36 36 31 28 29 30 27 25 30 38 42 40 38 37 37 36 33 32 35 35 29 21 18 18 20 22 23 23 22 23 25 26 26 27 28 29 30 32 33 34 36 38 39 39 40 41
20 20 21 22 22 23 23 24 26 26 24 25 27 29 29 31 34 36 33 30 29 29 26 25 29 35 38 36 33 33 33 32 31 31 31 32 30 26 20 16 17 17 16 19 22 23 24 26 27 28 30 31 31 30 29 30 32 34 37 38 38 38 39
20 19 21 21 21 23 24 25 25 25 24 25 26 25 26 30 34 34 30 28 28 25 23 25 30 32 30 28 28 29 29 29 29 29 28 27 25 23 20 18 18 18 17 17 19 22 25 28 28 28 30 30 29 28 27 27 28 30 33 35 34 34 35
20 20 21 21 22 23 25 25 24 24 24 24 24 25 27 31 33 31 28 26 24 21 22 26 27 25 24 24 25 25 25 25 25 25 24 23 23 23 23 21 21 22 22 22 20 20 24 29 28 26 26 26 26 26 26 25 25 25 27 31 33 30 30
20 20 20 21 23 24 24 23 22 22 23 24 27 29 31 31 31 28 25 24 22 21 23 23 21 20 20 21 22 23 23 23 23 23 23 23 24 24 25 24 24 24 24 22 21 20 19 19 20 19 20 21 21 22 23 22 22 21 22 25 27 24 22
24 22 22 23 23 23 22 21 21 23 27 30 32 34 33 32 30 27 24 23 23 22 20 19 17 18 18 19 20 22 22 23 23 23 23 23 23 24 25 24 23 23 24 21 15 11 7 8 11 13 14 14 14 16 18 19 19 19 19 20 20 17 15
30 29 27 25 22 19 20 23 25 28 31 34 35 35 33 31 29 27 25 23 22 19 16 15 16 17 17 18 19 20 21 22 23 24 24 24 24 23 23 23 22 22 24 25 16 4 5 7 8 9 9 9 10 11 14 16 16 17 17 17 16 13 14
30 30 27 23 20 20 21 24 26 28 31 34 34 32 30 28 28 27 25 22 19 15 13 14 15 16 16 17 18 19 20 21 22 22 23 24 24 23 22 22 22 22 25 27 21 8 3 5 6 7 7 8 9 9 10 13 14 14 15 17 16 13 13
26 26 24 22 22 23 24 24 24 26 30 32 31 30 29 28 26 25 22 19 16 13 12 13 14 15 16 17 18 19 20 21 21 22 22 22 22 23 22 22 24 25 26 26 22 12 5 5 6 7 7 6 7 7 8 10 11 11 13 15 16 16 15
22 22 22 22 23 25 25 25 25 27 30 30 30 30 29 26 23 21 18 15 13 12 13 14 15 15 16 17 18 19 20 21 21 21 22 21 21 22 23 24 26 26 24 24 23 16 8 5 5 6 6 6 6 7 7 8 9 10 11 12 13 15 16
19 18 18 20 23 24 24 24 26 27 28 29 29 30 28 23 19 17 15 13 12 12 13 14 15 16 16 17 18 19 20 21 21 22 22 21 21 22 24 25 26 24 22 23 25 20 11 7 6 6 6 7 8 8 8 8 9 10 10 10 10 13 14
19 17 17 18 21 22 21 22 24 26 27 26 26 26 24 20 16 15 14 13 12 12 13 14 15 16 17 17 18 19 20 21 22 22 21 21 22 23 24 24 24 23 23 23 24 22 17 11 8 8 8 8 8 9 9 10 10 11 11 11 10 12 14
20 19 18 18 19 19 19 20 23 24 25 24 23 23 20 16 14 14 15 14 14 14 14 14 15 16 17 18 19 19 20 20 21 22 22 21 21 22 23 23 23 23 24 24 22 22 22 18 11 8 9 9 9 9 10 11 11 11 12 13 13 13 14

ECMWFFLT1_925_spd_096.txt.gz
Wind_Speed
20 20 21 22 22 22 23 23 23 23 24 24 25 25 26 26 26 26 27 28 28 29 29 29 30 31 30 29 29 29 29 28 28 27 27 26 26 27 25 25 22 15 15 21 24 28 32 31 30 31 30 30 31 32 33 35 36 36 37 37 35 35 33
21 21 22 22 22 22 23 24 24 24 24 25 26 26 26 26 26 28 29 29 29 30 29 29 31 31 31 30 30 31 30 29 29 27 28 27 26 27 27 25 24 21 17 19 24 27 30 30 29 31 30 28 29 30 30 32 33 33 34 34 33 33 34
21 22 22 23 23 23 24 24 24 24 25 25 26 27 27 27 27 28 29 30 30 31 30 30 31 32 31 30 29 31 30 29 29 28 27 28 27 27 29 27 26 25 22 21 23 26 28 27 27 31 31 28 28 28 27 28 31 32 33 34 33 33 34
22 22 23 24 24 24 24 25 25 26 26 27 27 28 28 28 29 30 30 31 31 32 31 31 31 31 31 30 29 30 29 28 29 29 29 30 28 27 28 28 26 27 26 23 22 25 27 25 26 29 30 27 27 27 26 27 29 30 32 34 33 33 34
23 23 24 24 25 26 26 26 27 27 28 28 28 29 30 30 31 32 32 32 32 32 32 31 31 31 30 29 29 29 29 28 27 27 28 29 28 27 26 26 25 26 26 24 23 24 25 26 26 28 30 28 27 28 28 28 29 30 31 34 36 36 36
24 24 25 26 26 26 27 27 27 27 29 30 30 30 31 32 33 33 33 33 32 32 32 31 31 31 30 29 29 30 30 29 29 29 29 30 30 29 27 27 27 27 26 25 26 25 25 26 26 27 29 29 27 27 27 27 28 28 29 31 33 35 36
25 25 26 27 27 27 27 28 28 29 30 31 32 32 33 34 34 33 33 33 33 32 32 32 32 32 32 32 32 32 32 32 32 32 33 33 33 32 31 30 31 31 29 27 26 26 25 26 26 27 29 29 27 27 28 27 25 25 26 28 29 31 32
27 27 27 27 28 27 27 28 30 31 31 32 34 35 35 35 34 34 34 34 35 34 34 34 34 34 35 35 35 36 36 36 36 35 35 36 36 34 33 31 30 29 28 27 25 25 25 26 25 25 28 28 24 23 25 25 23 23 24 26 27 30 30
27 28 28 29 28 28 29 29 31 32 32 34 36 36 35 35 34 34 35 35 36 36 35 35 36 37 38 39 39 40 40 40 40 39 38 39 38 35 33 31 28 26 26 25 24 24 25 24 23 23 24 23 22 22 23 24 24 25 24 23 25 26 27
27 28 29 30 30 30 30 31 33 34 34 34 36 36 36 36 35 34 35 34 34 35 35 35 35 37 38 39 40 41 41 42 43 42 42 42 40 37 33 30 29 28 27 25 22 22 23 20 20 23 24 24 25 25 25 24 23 24 23 21 22 24 25
29 29 30 30 31 31 31 33 34 34 35 36 37 37 38 39 38 34 33 34 33 34 34 34 34 35 35 35 37 38 40 41 42 42 43 44 43 42 39 35 31 29 28 26 23 23 23 20 20 25 27 27 27 25 25 25 24 23 22 18 14 14 18
29 30 30 30 31 31 32 35 35 34 36 38 38 37 37 39 39 35 32 32 33 33 33 33 34 34 35 35 36 37 39 40 40 41 41 43 44 45 45 44 41 37 35 32 28 26 26 25 26 28 29 30 29 27 27 27 26 24 22 20 16 15 17
30 30 31 30 32 32 33 35 36 35 37 38 38 37 36 38 40 36 32 31 31 32 32 33 34 35 36 37 36 36 37 38 40 40 41 42 42 43 44 46 47 46 43 40 35 31 30 33 32 30 32 34 32 30 28 27 27 26 24 23 21 22 23
30 31 31 31 32 33 34 36 37 36 37 38 38 37 36 37 37 32 30 30 30 30 32 33 34 36 37 37 37 37 37 38 39 40 40 41 41 41 42 43 44 46 46 45 42 37 37 40 40 38 40 41 36 33 33 30 28 27 26 27 28 29 29
31 31 31 31 31 33 35 37 37 36 37 39 37 35 36 37 34 31 30 30 29 30 31 32 33 35 37 37 38 37 36 36 37 38 38 39 39 39 40 41 43 45 46 47 46 45 44 46 46 46 46 46 43 41 41 39 35 32 30 31 31 31 31
30 31 31 31 31 33 36 38 37 36 37 39 37 36 36 36 34 31 29 29 30 30 31 31 32 33 34 35 37 37 36 36 37 37 37 38 39 40 40 42 44 46 46 47 48 50 51 50 51 50 49 50 48 46 47 44 39 35 32 29 25 23 26
31 31 31 32 32 32 35 38 37 36 38 39 37 36 36 34 31 29 28 30 31 30 30 30 29 30 32 34 36 37 38 39 39 38 37 36 37 38 38 39 43 44 45 48 50 52 54 54 54 53 52 53 50 49 49 43 34 33 32 26 17 14 20
32 32 31 31 31 31 33 37 38 37 38 38 35 35 35 33 30 29 29 29 28 28 28 29 29 30 31 34 37 38 38 39 39 37 35 33 33 35 35 37 39 39 41 45 48 51 53 54 55 54 54 55 54 52 51 43 36 36 33 25 17 15 18
31 32 31 31 31 32 32 36 39 39 37 36 35 34 35 34 30 28 26 26 27 28 28 27 28 29 31 33 35 36 38 39 38 36 34 34 34 34 34 35 35 35 37 40 42 46 48 50 51 51 49 48 49 50 49 45 41 39 33 26 24 23 17
31 32 33 32 32 33 34 36 38 37 35 35 35 35 35 33 29 25 26 27 27 27 26 26 28 29 29 31 33 36 38 38 38 38 38 36 32 29 30 33 33 34 34 36 39 44 45 45 45 46 44 41 40 41 42 42 40 37 33 29 29 28 21
32 32 34 34 33 33 33 33 34 34 33 32 33 34 34 33 30 28 28 28 25 24 25 27 28 28 28 30 34 37 38 39 41 42 38 32 29 29 32 33 32 31 31 35 40 40 37 37 38 39 39 37 36 37 39 41 40 39 37 35 32 29 24
33 33 33 33 31 30 31 31 31 31 30 30 31 33 33 33 33 33 30 25 23 25 27 28 30 31 32 33 35 37 38 40 42 40 35 32 32 35 36 35 32 29 29 34 37 31 28 30 32 33 33 34 35 37 39 41 43 43 42 41 40 35 29
31 30 31 31 29 28 28 28 29 28 27 28 31 33 33 33 35 35 31 27 26 29 31 32 33 34 35 35 36 37 40 42 40 36 33 33 35 36 36 33 30 26 25 29 30 25 23 25 27 28 29 31 34 37 39 41 43 44 44 44 43 41 38
28 27 27 28 28 27 27 27 27 27 27 29 30 31 32 33 35 34 31 30 32 34 34 34 34 35 35 36 38 40 41 39 36 32 31 32 33 33 32 28 25 24 23 24 24 19 19 22 25 26 29 32 35 37 38 39 40 41 42 42 42 41 41
26 26 26 26 27 28 27 26 26 27 28 30 30 29 30 32 32 32 31 33 35 36 35 34 34 34 35 36 37 38 36 33 31 29 29 30 29 29 28 26 25 24 21 20 20 18 18 21 24 28 31 35 35 33 31 32 33 36 38 39 39 38 39
25 25 25 26 27 28 28 26 26 27 29 30 29 30 31 31 31 31 32 34 34 34 33 31 30 30 31 32 33 31 29 29 29 28 27 27 27 27 28 26 24 23 21 19 20 20 19 21 24 27 32 34 32 29 29 29 29 30 31 32 32 32 34
24 25 26 26 27 28 27 26 26 27 28 28 29 31 31 30 31 32 33 33 33 31 29 27 26 27 28 29 28 26 26 26 27 26 27 27 28 28 28 26 24 23 22 21 21 20 21 23 25 27 29 30 29 29 30 31 29 26 27 29 29 27 27
25 28 28 27 27 26 25 25 25 25 25 27 29 31 31 30 31 32 31 31 30 27 25 25 26 26 26 24 24 23 24 25 25 25 26 27 28 28 28 27 25 22 20 19 20 21 22 25 27 27 26 27 27 28 30 30 28 27 27 27 25 21 20
29 30 30 28 25 24 24 24 24 23 24 27 30 31 32 31 31 30 29 28 26 24 23 23 24 23 21 21 22 22 22 23 24 25 26 26 27 28 28 27 24 21 20 20 21 21 22 25 28 27 24 23 23 25 27 27 27 27 27 26 23 19 19
31 30 29 27 26 25 25 25 26 26 27 29 30 31 32 32 30 29 28 25 22 20 20 20 20 20 19 20 20 20 20 21 22 23 24 25 27 27 26 25 23 22 23 23 23 23 22 24 27 25 19 17 19 21 24 25 26 27 25 23 20 17 18
31 30 28 26 27 27 25 25 26 26 27 28 30 31 30 29 28 27 26 22 19 18 19 19 18 19 19 19 20 19 20 21 22 22 23 25 27 27 25 24 24 25 26 25 24 23 22 23 26 24 14 10 12 15 19 21 22 23 22 21 18 16 15
29 29 27 25 26 27 27 26 25 25 26 27 29 29 28 27 26 25 23 19 17 16 18 18 17 18 19 19 19 19 20 21 21 22 23 24 25 25 24 25 27 28 28 25 23 23 24 23 25 25 17 9 9 10 12 13 13 14 16 17 17 15 15
27 26 25 25 26 26 27 27 26 26 27 28 27 26 26 25 23 20 19 16 15 15 17 17 17 18 19 19 19 20 21 21 21 22 23 23 23 24 26 28 29 29 26 23 22 23 24 23 23 25 21 12 10 9 9 11 11 11 12 13 12 12 13
26 24 23 23 24 25 25 26 26 26 26 27 27 26 24 23 21 19 16 14 13 14 16 17 17 18 19 19 20 21 21 21 22 23 24 24 24 26 27 28 29 27 24 23 24 23 23 23 23 24 24 17 11 11 11 11 11 11 11 10 10 10 11
27 26 24 22 22 23 23 23 23 24 24 25 25 23 22 23 22 21 19 17 16 16 16 16 16 18 19 20 21 22 22 23 24 24 24 25 25 26 27 28 27 24 23 24 25 23 23 23 23 22 23 23 18 12 11 12 12 12 11 11 10 9 9
29 29 27 24 21 21 21 21 21 22 24 23 22 21 21 21 21 21 20 19 18 18 17 17 17 18 20 21 22 22 23 24 24 24 24 25 24 25 26 27 25 24 24 24 24 23 23 24 24 22 22 23 22 17 13 13 14 13 12 12 11 10 9

ECMWFFLT1_925_spd_102.txt.gz
Wind_Speed
22 23 24 23 22 22 23 23 22 22 22 23 24 25 25 26 25 26 26 26 26 26 25 26 27 26 26 25 25 26 25 24 25 24 25 25 25 27 27 26 24 18 21 30 31 31 32 28 28 31 30 32 36 36 35 36 37 39 38 38 39 38 35
23 23 23 23 23 23 23 23 22 22 23 24 25 26 27 26 26 27 27 27 27 26 26 26 27 26 26 25 26 26 25 25 26 25 27 27 26 28 29 26 25 23 21 27 31 30 31 28 27 31 31 30 34 35 35 35 35 36 36 35 34 34 34
23 24 23 23 24 24 23 23 23 23 24 25 27 28 28 28 27 27 27 28 27 27 26 26 27 27 26 25 26 27 26 26 27 27 27 28 27 28 30 28 27 26 24 27 31 30 29 27 26 29 30 28 31 33 33 33 34 34 34 35 34 35 36
23 23 23 24 24 24 23 23 24 25 26 27 28 28 28 28 28 28 28 29 28 28 27 27 27 27 26 26 26 27 27 27 28 28 27 28 28 27 29 28 26 26 26 27 30 30 28 26 24 27 28 27 30 33 32 32 34 34 35 37 37 36 36
24 23 23 24 24 23 23 24 26 27 28 29 28 28 29 29 29 30 30 30 29 28 28 28 28 28 27 26 27 28 28 28 29 29 28 29 29 28 28 26 25 25 26 27 29 30 29 27 25 27 29 28 29 33 34 34 36 36 37 38 38 37 37
24 23 24 24 24 24 25 26 27 29 30 30 29 29 30 30 31 31 31 30 30 30 30 29 29 29 28 27 29 29 30 30 30 30 31 31 31 31 30 29 28 27 27 28 30 31 30 29 25 26 30 28 26 30 34 34 35 36 36 35 35 36 36
24 24 25 26 26 27 27 28 29 31 31 30 31 31 32 32 33 32 31 31 31 31 31 31 31 31 30 29 30 31 32 31 31 31 32 33 33 33 31 30 30 29 27 27 29 29 29 28 25 24 28 29 27 29 33 32 29 30 34 33 31 33 34
26 26 27 27 29 29 29 30 31 32 31 32 32 33 33 34 33 33 32 32 32 32 32 33 33 32 31 31 32 33 33 33 32 32 33 34 34 33 31 30 29 28 27 26 27 27 27 27 25 25 27 29 27 25 29 30 25 25 30 30 29 31 31
27 28 28 30 31 31 32 33 33 33 33 33 33 33 34 33 32 31 32 32 32 32 32 32 32 31 31 32 32 33 33 33 32 33 34 35 34 32 31 30 29 28 26 24 25 25 26 25 24 25 26 26 25 24 27 31 28 26 29 31 31 35 36
28 28 30 31 32 33 34 34 34 34 32 31 32 33 33 33 32 31 30 30 30 29 29 29 28 29 29 29 30 30 30 30 31 32 33 34 34 32 31 30 29 28 27 25 23 25 25 21 20 27 31 29 32 34 33 34 32 30 32 31 28 32 38
29 30 31 32 32 33 33 34 35 33 30 30 32 34 34 34 33 30 28 27 27 27 26 26 26 27 28 29 30 30 30 30 31 31 33 34 35 34 34 32 31 30 29 27 26 27 27 21 21 30 35 35 37 39 37 36 35 30 28 25 18 18 29
30 31 32 32 32 33 33 34 34 31 30 31 33 33 34 34 33 30 27 25 25 25 25 25 26 27 28 29 30 30 30 30 30 30 31 33 34 35 35 36 36 35 32 29 27 26 27 27 29 33 37 39 40 40 38 36 34 31 28 25 19 15 26
31 32 32 32 32 32 33 34 34 31 30 32 33 32 33 34 33 30 27 25 24 25 26 26 28 29 29 29 29 29 29 30 31 31 32 34 36 36 37 38 39 39 37 34 31 28 28 32 33 32 37 43 42 39 36 31 32 36 32 27 25 26 34
31 31 32 32 32 32 34 35 34 32 30 31 33 33 34 34 31 28 26 26 26 27 27 27 27 28 29 29 28 29 29 30 31 33 34 36 37 37 38 38 39 40 40 40 37 35 36 39 38 37 41 46 45 40 37 34 35 38 36 33 34 37 40
31 31 31 32 32 32 33 35 33 30 29 31 32 33 33 32 29 27 27 27 27 27 27 27 27 28 30 30 30 30 29 28 31 33 35 36 36 37 38 38 39 40 41 42 42 41 42 44 44 44 45 47 47 45 44 44 44 44 42 38 35 35 37
30 30 30 31 30 30 33 35 33 29 29 30 31 32 32 29 28 28 28 27 27 27 27 27 28 29 30 30 31 30 28 28 31 33 33 33 34 36 36 36 38 39 40 42 43 44 45 46 47 48 48 49 50 49 49 47 43 42 40 32 24 25 30
29 29 29 29 30 30 32 35 34 29 28 29 30 32 31 29 28 27 26 26 27 28 28 28 28 28 30 31 31 30 29 30 31 32 32 31 32 33 35 36 38 38 38 40 40 40 41 40 41 41 43 45 45 43 44 39 32 32 33 25 15 14 22
29 30 30 29 30 30 31 34 33 29 27 28 30 31 30 29 27 25 25 26 27 27 27 27 27 28 28 29 29 29 29 31 32 32 32 31 31 32 33 33 33 34 35 35 34 34 35 35 35 35 37 39 40 40 39 33 27 28 28 23 16 14 19
29 30 31 30 30 29 29 32 33 31 28 28 30 31 30 28 25 24 25 26 26 26 26 26 27 26 25 26 28 29 31 34 33 33 33 32 29 26 26 27 29 29 28 27 27 30 32 35 38 38 39 41 43 45 44 41 36 32 28 23 21 20 17
28 30 31 30 30 29 30 31 32 32 29 27 28 29 29 27 25 25 25 25 25 26 26 25 24 23 22 25 28 31 33 34 33 34 33 28 21 18 22 25 26 23 22 24 27 30 32 34 36 37 37 37 39 42 43 43 40 36 33 29 25 24 19
29 29 31 31 29 29 30 30 31 31 29 27 27 28 28 27 27 26 26 26 25 24 24 23 21 22 25 28 31 31 31 32 34 35 28 20 17 20 23 23 21 21 23 25 28 30 31 31 32 32 32 32 34 36 38 39 38 35 34 32 29 27 24
29 28 30 31 29 29 29 30 30 30 29 27 26 27 28 29 29 29 29 27 24 22 22 22 23 25 28 30 29 29 31 34 35 31 23 20 23 25 23 21 21 23 23 24 25 26 27 28 27 28 30 30 31 33 33 34 35 35 33 32 33 33 30
27 27 28 29 28 28 28 29 29 28 28 27 26 27 29 30 30 30 30 26 23 22 23 24 26 29 30 30 30 32 33 32 29 25 23 26 29 27 24 23 24 24 23 23 23 23 24 26 25 26 28 29 30 31 30 30 32 32 32 33 35 38 38
25 24 25 26 27 27 28 29 29 29 28 29 29 28 28 28 29 28 27 25 24 24 26 29 30 31 31 32 33 32 30 28 26 26 27 28 27 24 23 24 24 23 23 23 22 22 23 25 25 25 27 28 29 29 29 30 31 31 31 32 34 36 37
23 23 23 24 25 27 29 30 30 30 30 30 30 28 27 27 27 25 24 25 26 28 29 30 30 31 31 31 30 26 25 26 27 28 27 25 23 21 21 21 22 22 21 20 21 21 22 24 26 27 29 30 31 32 32 32 33 34 34 32 32 33 34
22 22 23 24 26 28 30 31 31 31 31 30 28 27 26 25 25 25 25 26 27 28 28 29 30 30 29 25 21 20 21 24 25 25 25 22 20 19 19 19 20 20 19 20 21 21 22 25 28 30 31 31 32 33 33 31 29 30 30 29 28 28 30
22 22 22 24 26 29 30 30 29 29 29 27 26 25 25 25 25 25 25 26 27 27 28 28 26 24 20 18 18 20 22 23 23 23 22 19 18 18 18 18 18 19 20 21 22 23 25 27 29 30 30 30 30 30 30 27 24 25 26 26 25 24 25
24 24 24 25 27 29 28 26 26 26 25 23 23 23 24 23 23 22 22 23 24 23 21 19 17 16 17 18 21 23 23 22 21 19 18 17 18 18 17 17 18 18 19 19 21 24 25 26 27 27 27 27 28 29 28 26 23 24 25 24 21 19 21
26 25 26 27 28 27 24 23 22 20 20 21 21 21 20 18 17 17 16 15 14 11 11 12 16 18 20 21 21 21 20 19 18 17 17 17 17 17 17 18 17 17 18 19 20 21 22 23 24 24 24 25 26 27 27 25 23 23 24 24 22 20 22
26 26 26 25 23 20 19 20 20 20 20 22 23 22 19 17 16 14 11 8 8 10 14 18 19 20 19 18 17 17 17 16 16 17 18 18 17 17 18 17 16 17 19 19 19 20 21 21 21 22 23 23 23 25 25 24 24 24 25 25 23 22 22
24 24 24 22 21 20 20 20 21 21 20 22 24 23 21 19 17 12 8 8 11 15 17 17 17 16 17 16 15 15 15 16 16 17 17 18 18 18 17 17 17 18 19 19 20 20 19 19 19 21 22 21 22 24 25 25 24 24 25 25 22 19 18
22 22 21 20 20 21 21 20 20 19 20 21 21 21 20 19 15 10 9 12 16 17 16 14 15 15 15 15 15 15 16 16 17 17 17 18 18 18 18 18 19 19 19 20 20 19 18 19 20 20 20 20 21 23 23 24 24 23 23 24 19 15 17
19 19 19 20 20 20 21 21 20 19 20 20 19 20 20 16 9 6 9 14 17 16 14 14 14 14 15 15 15 16 17 16 17 17 18 18 18 19 20 21 20 20 20 20 18 17 18 20 20 19 20 21 21 21 21 22 22 22 22 21 18 13 13
19 19 20 21 21 21 21 20 20 19 19 19 19 20 18 12 8 8 13 16 16 15 14 14 14 15 15 16 16 17 17 17 17 17 18 18 19 20 21 21 20 20 20 19 17 18 19 20 19 19 20 21 21 20 20 20 20 20 19 18 17 14 12
26 25 24 23 22 21 20 20 19 19 18 19 20 20 16 12 13 17 19 18 17 15 15 15 15 15 16 17 18 18 18 18 18 19 18 19 20 21 21 21 20 20 19 18 18 19 19 19 19 19 19 21 21 20 19 19 19 19 18 17 16 15 15
29 29 28 25 22 21 20 20 19 19 20 20 19 18 16 16 18 19 18 18 17 16 15 15 16 17 17 18 18 19 19 19 19 20 19 19 20 21 21 21 21 20 19 18 19 19 19 20 20 20 20 21 22 21 20 19 19 19 18 18 17 16 16

ECMWFFLT1_925_spd_105.txt.gz
Wind_Speed
22 23 23 23 23 23 23 24 24 24 23 23 23 22 22 22 23 24 24 24 24 24 24 25 25 25 24 23 24 25 24 24 23 23 24 23 23 24 21 21 20 15 19 28 29 31 30 24 24 28 27 29 33 31 28 27 28 28 27 28 31 33 32
23 23 23 24 24 24 24 24 24 24 24 24 23 23 23 23 23 24 25 25 26 26 25 25 25 25 25 24 25 25 24 25 24 23 25 25 23 25 24 21 22 20 18 25 28 28 29 25 24 29 28 26 31 32 28 28 28 28 29 31 32 33 33
24 24 24 24 24 24 24 24 24 25 25 24 24 24 24 25 25 25 26 27 27 27 25 25 25 26 25 25 25 26 25 25 25 25 25 27 25 25 26 24 23 23 21 25 28 27 26 22 20 26 27 24 30 33 31 32 34 33 33 35 35 35 36
24 24 25 25 25 24 24 24 25 25 25 25 25 25 26 26 26 27 28 28 27 27 26 25 26 26 26 26 25 26 25 25 25 26 26 27 27 25 27 26 24 24 24 25 28 27 25 21 20 24 26 25 30 35 34 35 36 35 34 35 36 37 38
24 25 26 26 26 25 25 25 26 26 26 26 26 26 27 27 28 29 29 29 28 28 27 27 27 28 27 26 26 26 26 26 26 28 28 28 28 27 27 27 25 24 24 25 28 28 26 22 21 24 27 26 28 33 35 34 34 34 34 35 36 36 36
25 26 27 27 26 26 26 26 26 27 27 28 28 28 28 29 30 31 30 30 29 29 29 28 28 29 27 27 28 28 28 28 28 29 30 30 30 29 28 28 28 27 26 26 28 29 27 24 21 23 27 26 26 30 32 32 33 35 35 33 32 33 34
26 27 27 27 27 27 27 27 27 28 29 29 30 30 30 31 32 32 31 30 30 29 29 29 29 29 29 29 30 30 30 30 30 31 32 32 32 31 30 29 29 29 27 26 27 27 27 25 21 23 27 28 28 29 30 30 30 32 35 33 31 32 33
26 27 27 27 28 28 28 28 29 29 30 31 31 31 32 33 33 32 31 31 31 30 29 30 30 30 31 31 31 31 31 31 31 32 33 33 32 31 30 30 29 29 27 26 27 27 26 25 22 23 27 29 27 25 27 30 27 27 32 34 34 35 35
26 27 28 28 29 29 29 30 30 31 31 32 33 33 34 34 32 31 30 30 30 30 30 31 32 32 32 31 31 31 31 31 31 32 33 34 32 31 31 30 30 29 27 26 26 26 26 24 21 23 27 28 26 24 27 32 30 29 33 36 37 41 40
26 27 28 29 30 30 31 31 32 32 32 31 31 32 32 31 30 29 29 29 30 30 30 30 30 30 30 29 29 29 29 30 30 31 33 33 32 30 29 29 29 29 28 27 25 26 26 21 18 24 29 31 32 32 32 34 33 33 35 33 29 34 42
27 28 29 30 31 31 32 32 33 33 31 30 30 32 31 30 29 29 28 29 29 28 27 26 27 28 27 27 27 27 28 30 31 32 32 33 33 31 31 31 29 29 28 27 26 27 26 20 19 27 32 34 36 35 33 34 33 31 30 26 18 18 30
28 29 30 30 31 31 32 33 34 32 30 30 31 31 31 30 29 28 28 27 26 25 25 25 26 26 26 27 28 29 30 32 33 33 32 32 33 32 34 36 35 34 31 28 26 25 25 24 25 28 32 36 38 37 35 33 32 32 30 26 20 16 26
29 30 30 30 31 32 33 33 34 31 29 30 31 31 32 31 29 27 25 24 23 24 24 24 25 26 28 29 29 29 30 31 33 33 32 31 32 33 36 37 39 39 36 34 31 27 27 29 28 28 32 38 40 37 34 30 32 35 32 27 26 27 34
29 30 30 30 31 32 33 34 34 31 29 30 30 30 31 30 28 25 23 23 23 23 24 25 26 27 28 28 28 28 28 29 31 32 32 33 34 36 38 38 39 40 39 38 37 35 36 38 36 35 38 42 42 38 34 32 34 37 35 32 33 36 39
29 30 30 30 30 31 33 34 33 30 28 29 29 29 30 29 27 25 24 24 24 24 25 26 26 27 28 28 28 28 27 28 29 31 32 34 35 37 38 38 39 39 39 41 41 41 42 43 42 43 44 45 46 44 42 41 41 41 40 36 34 35 37
29 29 30 30 30 30 32 34 32 28 28 29 29 28 29 28 26 25 24 25 25 25 26 26 25 27 28 28 28 28 27 27 28 31 32 34 36 36 37 37 38 38 40 41 42 43 44 44 44 45 44 44 44 43 42 40 37 37 36 31 25 25 30
29 29 30 30 30 30 31 33 32 28 27 28 28 27 28 27 26 25 25 25 26 26 26 26 26 27 27 28 28 27 27 27 28 31 33 33 33 33 33 34 35 36 39 41 40 39 39 38 37 36 36 37 36 35 32 27 23 25 25 20 12 12 20
29 29 30 30 29 29 30 33 32 28 27 28 27 27 27 26 25 24 24 25 25 26 26 27 27 26 26 27 27 27 28 29 31 32 31 30 29 30 31 33 33 35 37 36 36 35 35 34 34 32 33 36 37 37 33 25 22 23 23 20 13 12 17
29 30 30 30 29 29 29 31 32 29 27 28 27 26 26 26 25 24 24 24 25 26 27 27 27 26 24 26 27 27 30 31 31 30 28 27 28 28 29 30 30 29 27 25 26 29 32 35 36 36 37 38 39 40 36 31 28 26 23 21 20 19 16
28 29 31 30 29 29 29 30 31 30 28 27 27 26 26 26 25 23 23 24 25 27 27 26 27 27 25 25 26 27 30 31 30 30 30 29 27 24 24 26 24 21 19 20 24 28 31 34 36 37 37 38 38 38 35 32 30 27 24 23 23 23 18
28 29 31 31 30 29 29 29 29 30 28 26 26 25 25 26 25 23 24 25 26 26 26 26 26 26 25 24 25 28 30 30 30 31 31 28 23 21 21 20 17 18 21 24 27 29 30 32 33 34 35 34 34 34 32 31 30 28 26 25 25 25 22
28 28 30 31 30 29 29 28 28 28 27 25 25 24 24 25 26 26 25 25 26 26 27 26 25 24 24 25 26 28 29 29 29 29 27 22 19 19 18 17 18 22 25 26 26 27 27 28 28 29 30 30 30 30 29 29 30 29 27 27 29 30 28
27 27 28 30 30 29 28 28 27 26 25 24 24 24 25 26 28 28 28 27 26 24 23 22 22 23 25 26 27 28 28 27 25 22 20 19 20 20 20 22 25 26 25 24 24 24 24 25 24 25 27 27 27 28 27 28 30 31 30 31 32 34 34
25 24 25 27 28 28 28 27 26 25 24 24 25 26 26 28 29 29 28 26 24 22 21 22 24 25 26 27 27 27 26 23 21 19 19 20 22 23 24 26 27 26 24 23 22 21 22 23 22 23 25 25 26 28 29 30 33 34 34 34 35 36 36
23 23 23 25 26 28 29 28 27 26 25 26 27 28 27 27 28 28 26 25 24 25 25 26 26 26 26 26 25 24 23 23 24 23 23 23 24 25 26 26 26 25 22 21 21 21 22 24 23 23 26 27 28 30 31 31 33 34 33 33 34 34 35
23 22 23 23 25 28 30 29 28 29 29 28 28 28 26 25 26 26 25 25 26 27 27 27 26 25 24 23 21 20 21 23 24 24 25 25 26 25 25 24 22 21 20 20 21 22 23 24 25 26 27 28 29 29 29 28 29 31 31 29 28 28 29
22 21 22 24 26 28 30 30 29 30 30 28 26 25 24 25 26 26 26 27 28 28 28 28 26 23 20 19 19 19 20 21 23 24 25 25 25 24 22 20 18 17 19 21 22 22 24 26 27 27 27 27 27 26 25 24 24 26 27 25 24 24 25
23 23 24 25 27 28 28 28 28 27 27 25 23 24 25 26 27 27 28 29 29 28 25 23 20 18 17 18 19 19 21 22 23 23 23 23 22 21 20 17 16 17 19 20 20 22 24 25 25 26 26 25 24 23 24 24 24 24 24 23 21 21 22
27 27 27 28 29 28 26 25 24 23 22 22 23 24 26 27 27 28 29 27 23 19 16 14 13 14 14 16 17 19 20 21 21 20 20 20 19 19 18 17 17 18 19 19 19 21 23 23 24 26 25 23 23 23 24 24 23 21 21 21 20 20 22
27 28 28 28 28 25 23 23 22 21 21 23 25 25 25 24 23 20 17 15 13 12 11 10 11 13 15 16 17 17 18 18 17 17 18 18 18 18 17 17 17 17 18 18 19 20 22 23 23 24 22 21 22 23 23 21 20 20 20 20 19 19 21
24 24 24 24 23 21 19 20 21 22 23 23 24 24 24 22 20 14 7 10 10 8 9 11 12 13 14 14 14 15 15 14 14 15 16 17 17 17 17 16 17 17 17 19 19 20 22 22 22 22 21 20 21 21 21 20 20 19 19 19 18 19 20
22 21 21 21 21 21 21 21 21 21 22 21 22 22 21 20 20 14 6 7 7 8 9 10 11 12 13 13 13 13 13 13 14 14 15 16 17 17 16 16 17 18 18 19 20 20 21 21 20 20 20 20 20 20 21 21 21 19 18 19 19 19 19
19 19 18 19 20 20 21 22 21 20 20 20 20 19 17 18 19 13 5 5 8 10 10 11 11 12 12 12 12 13 14 14 15 15 15 16 17 18 18 18 18 19 20 20 19 19 20 20 20 20 20 20 20 20 21 21 20 20 19 19 18 18 19
20 19 18 19 20 20 21 21 20 20 20 19 18 18 18 17 15 11 9 9 12 12 12 12 11 12 12 12 13 14 14 15 16 16 16 17 17 18 19 19 19 18 19 19 19 20 20 20 19 19 20 20 20 20 20 21 20 19 19 18 17 19 19
24 23 22 21 20 20 20 20 19 19 19 18 19 19 18 14 11 11 12 14 14 13 13 13 13 13 13 13 14 15 15 16 17 17 17 17 18 19 19 19 18 18 19 19 19 20 19 19 19 19 19 20 20 19 19 20 20 19 19 18 18 18 18
27 26 25 23 21 19 19 19 18 19 19 19 20 19 15 11 9 11 14 15 15 15 15 15 15 15 15 15 16 16 16 17 17 17 17 18 18 19 19 19 19 20 19 19 19 19 19 19 20 20 20 20 20 20 20 21 21 20 19 18 18 19 19

ECMWFFLT1_925_spd_108.txt.gz
Wind_Speed
21 21 22 22 22 22 22 23 23 23 23 22 23 23 23 23 22 22 22 22 22 21 21 23 24 25 25 24 24 25 24 24 23 22 22 21 21 21 20 21 20 16 20 32 33 29 27 26 27 28 28 30 31 28 26 27 26 26 27 29 31 32 32
22 22 22 22 23 23 23 23 24 24 23 23 24 24 23 24 23 23 23 23 23 23 23 24 25 26 26 26 26 26 25 25 24 23 23 22 21 22 21 21 23 20 19 26 31 28 25 25 27 29 28 28 29 28 28 30 30 30 31 32 33 35 36
22 22 22 23 23 23 24 24 24 25 25 24 24 24 24 25 24 24 24 24 24 25 25 25 26 27 27 26 26 26 26 25 25 23 24 24 23 23 23 22 23 24 22 24 29 26 21 21 24 26 25 26 30 30 30 32 34 33 32 32 33 34 36
22 22 23 23 24 24 24 25 25 25 26 26 25 25 25 26 26 26 26 26 26 27 27 27 28 28 28 27 26 26 26 25 25 25 24 24 23 23 24 24 24 24 24 25 27 25 20 18 20 23 24 26 30 32 31 32 34 33 32 32 32 33 35
22 22 24 24 24 25 25 25 26 26 27 26 26 26 26 27 27 28 28 28 28 28 29 29 29 30 28 27 27 27 27 27 26 26 25 24 24 24 24 25 23 22 23 24 25 24 21 19 19 22 24 25 28 31 32 31 31 32 33 33 33 33 34
22 23 24 24 24 24 25 26 26 27 27 27 27 27 27 28 29 29 30 30 30 31 31 31 31 30 29 28 28 29 29 28 27 27 27 26 27 26 26 26 25 24 23 23 24 24 22 20 20 22 24 24 25 28 29 29 31 33 35 33 32 34 35
23 23 24 24 24 25 25 26 27 28 28 28 28 28 29 30 30 31 32 32 33 32 32 32 31 31 30 30 30 30 30 29 28 28 29 29 29 29 28 28 28 27 26 24 24 24 23 22 22 24 26 27 25 25 27 27 28 31 34 34 33 34 35
23 23 23 24 25 25 25 26 28 29 29 30 30 30 31 32 32 33 34 34 35 34 33 32 31 31 31 31 31 31 30 30 29 30 30 30 29 29 29 28 28 27 26 25 25 25 23 23 24 25 27 28 24 22 24 26 26 27 32 35 36 38 37
22 23 24 25 25 25 26 27 28 29 30 31 31 32 33 34 34 35 36 36 35 35 33 32 32 32 32 31 31 30 30 30 30 31 31 31 30 30 30 29 28 26 26 25 24 24 23 22 22 24 26 26 24 22 24 28 27 29 34 36 38 41 39
23 24 25 26 26 26 27 28 29 30 30 29 29 31 33 33 34 35 35 35 35 34 33 33 33 32 32 31 31 30 30 30 30 30 31 31 30 30 30 30 29 28 27 26 24 25 24 19 19 24 27 28 29 28 27 29 30 32 35 32 29 33 40
24 24 25 26 27 28 29 29 30 30 29 27 28 30 32 32 32 31 31 31 31 31 31 30 31 31 30 30 30 29 29 29 29 29 30 30 30 31 31 31 31 30 29 28 26 27 25 20 20 26 30 31 32 31 29 31 32 31 30 26 19 19 30
25 25 26 27 28 29 30 31 31 29 28 28 29 30 32 32 31 30 29 29 29 29 29 28 28 28 28 28 28 28 29 29 30 30 29 30 31 31 32 33 34 34 31 28 26 25 24 22 22 26 30 31 32 32 32 32 32 31 28 25 21 17 26
26 26 27 27 29 30 31 31 31 29 28 29 30 30 31 33 32 29 28 27 27 28 27 27 26 27 27 28 27 28 29 30 31 32 32 32 32 32 34 35 37 38 35 32 29 25 23 23 23 25 29 32 33 33 32 31 31 33 30 27 25 26 33
27 27 28 28 29 30 31 31 31 30 28 28 29 30 31 32 32 30 28 27 27 26 25 25 25 26 27 28 28 28 30 31 32 33 33 34 35 35 36 36 38 39 39 38 35 32 32 33 33 34 36 38 38 35 33 31 32 33 32 30 31 34 38
27 28 28 28 29 30 32 32 31 29 28 28 29 29 30 30 30 28 27 26 25 25 25 25 26 27 28 28 29 30 30 30 31 31 32 34 35 36 36 37 38 38 39 39 39 39 40 40 40 41 41 42 42 41 40 39 38 37 35 34 33 33 35
27 28 28 29 28 29 32 33 31 28 27 28 28 28 29 29 28 27 27 27 27 27 27 27 26 26 27 29 30 29 28 28 28 29 31 33 34 35 36 37 37 37 37 39 39 40 41 41 42 42 42 42 40 38 37 34 32 31 29 27 25 23 26
27 27 28 28 29 30 32 33 32 28 27 27 27 27 28 28 28 28 28 28 28 28 28 27 26 26 27 29 29 29 27 27 28 30 32 33 33 34 35 36 37 37 37 37 38 39 39 39 38 36 35 34 32 31 27 21 19 20 20 18 14 12 19
27 27 28 29 30 30 31 33 33 28 26 27 27 26 27 28 27 27 27 26 26 26 27 27 27 27 27 28 29 28 27 27 29 32 33 32 31 31 33 34 35 36 36 35 36 37 37 36 35 32 32 32 33 33 29 23 21 22 20 17 13 13 19
26 28 29 30 31 31 30 32 33 30 27 27 26 26 26 27 27 27 27 27 26 27 28 28 28 28 27 27 28 27 27 28 30 32 33 32 31 30 31 32 32 33 33 31 30 29 29 30 32 32 33 33 33 34 32 29 28 25 21 19 19 20 17
26 29 30 30 31 31 31 31 32 31 29 27 26 26 25 26 26 25 24 23 23 24 25 26 28 29 27 26 26 26 28 29 30 31 31 30 28 27 27 28 27 26 23 20 18 19 21 24 27 29 31 33 34 35 34 32 29 25 23 22 22 24 18
26 28 31 31 31 32 31 31 31 31 29 26 26 25 24 25 26 25 23 24 24 26 27 28 28 29 28 28 26 26 28 30 30 30 28 26 24 23 22 18 14 13 13 14 18 21 23 26 28 30 31 32 33 34 33 32 29 26 24 23 24 25 22
26 27 30 31 31 32 32 30 29 29 28 26 25 24 23 24 25 24 24 24 24 24 25 26 27 28 29 28 26 26 28 29 29 27 24 22 20 18 14 10 9 13 17 20 23 25 25 27 28 29 30 30 31 31 30 30 30 28 25 24 25 27 26
26 26 28 30 31 31 31 29 27 27 26 24 22 22 22 23 24 25 25 24 23 22 22 24 25 25 25 25 25 27 29 28 24 21 19 18 17 15 15 16 19 21 22 23 24 24 24 26 26 27 28 28 28 27 26 26 28 29 28 27 28 30 32
24 23 25 28 30 30 30 28 27 25 23 22 21 21 22 23 24 26 27 26 24 23 22 22 22 23 25 26 27 27 25 22 19 17 16 17 18 19 21 23 24 23 23 23 24 23 24 25 25 25 26 26 25 24 25 26 28 30 30 30 31 32 33
23 22 23 25 27 29 30 28 27 25 21 20 21 23 24 24 26 27 27 26 26 25 25 25 25 26 26 26 25 23 22 22 22 21 20 19 20 22 23 24 24 24 23 23 24 24 25 26 26 24 24 24 24 24 25 27 28 29 29 27 27 29 32
23 22 22 24 26 28 29 28 27 25 23 23 25 26 24 23 24 25 25 26 27 28 28 27 27 26 24 23 22 22 23 24 25 24 22 21 22 23 24 24 25 25 25 25 25 25 25 25 25 24 24 23 24 25 25 25 26 27 26 24 24 28 33
22 22 21 23 25 27 29 29 28 27 27 27 27 25 23 22 24 25 26 27 28 28 28 29 28 27 24 23 23 23 23 24 24 25 25 25 24 25 25 26 26 25 24 24 24 24 25 26 25 24 23 23 23 24 25 23 22 24 25 25 25 26 31
23 24 23 24 26 26 27 28 29 29 29 28 25 23 23 24 25 26 27 29 29 29 29 28 27 26 24 23 24 23 23 23 23 23 23 24 24 25 25 25 24 22 22 22 22 23 24 24 23 22 22 21 22 24 23 21 20 22 25 25 23 21 24
25 27 27 27 28 27 26 27 29 29 27 24 23 23 25 26 27 29 31 31 31 30 28 25 23 22 21 21 20 20 19 20 20 21 23 24 24 24 23 22 21 21 21 21 20 21 21 21 21 21 21 21 22 23 21 19 19 21 23 22 21 21 24
26 28 28 28 29 29 27 27 27 25 23 22 24 25 26 27 27 26 26 25 24 23 23 20 19 18 17 16 16 16 18 19 20 21 22 22 22 21 21 20 19 19 19 18 18 18 20 20 20 20 20 20 21 22 20 18 18 19 20 20 20 22 24
25 26 26 25 26 26 24 23 22 22 23 24 25 26 26 26 25 21 17 14 13 15 17 17 16 15 15 14 15 16 18 18 18 19 19 20 20 19 18 18 18 17 16 16 17 18 19 20 20 20 20 19 20 20 19 18 17 18 19 20 20 21 22
23 24 23 22 23 24 23 22 22 22 24 25 24 24 23 22 21 19 13 9 10 11 14 15 14 14 15 15 16 17 17 17 17 17 17 17 17 17 17 16 16 16 15 16 18 19 20 20 20 19 19 19 19 19 19 18 17 18 18 19 20 20 21
21 22 21 20 20 21 23 24 23 22 22 22 22 21 20 19 20 19 15 13 13 12 13 14 14 15 16 16 17 18 17 17 17 17 16 16 17 18 18 17 16 16 16 17 18 18 19 19 19 20 20 19 19 19 19 19 18 18 19 19 19 20 21
23 22 22 21 21 20 21 23 23 22 21 21 20 20 20 21 21 20 16 14 13 12 12 13 14 15 16 16 17 17 17 17 16 16 16 17 17 18 18 18 17 17 17 18 17 18 20 20 20 20 19 19 18 18 19 19 18 18 18 18 18 20 21
26 25 24 24 23 21 20 21 22 21 21 20 20 20 21 21 20 18 15 14 13 13 14 14 15 16 16 17 17 17 16 17 16 16 17 17 18 19 18 18 18 18 18 18 19 20 20 19 19 19 19 18 19 19 19 19 18 18 18 19 20 22 22
27 27 26 26 24 22 20 20 20 20 20 20 20 20 18 15 12 13 15 17 17 17 17 17 17 17 17 17 17 17 17 17 17 17 18 18 18 19 19 19 19 19 19 19 19 19 19 18 19 20 20 20 20 20 20 19 19 19 20 20 21 21 21